GFSMW_con_mucape_000.txt.gz
CAPE
262 240 287 226 255 396 200 488 345 271 145 165 22 0 0 0 0 0 0 0 2 0 0 0 0 0 0 33 54 38 36 40 127 142 142 103 127 240 164 72 88 36 0
40 108 134 322 565 417 197 244 72 43 47 47 5 0 0 0 0 0 0 0 0 0 0 0 0 0 0 0 21 72 15 0 0 64 64 6 0 53 101 146 164 57 31
0 0 17 56 104 138 123 77 66 68 63 35 2 0 0 0 0 0 0 0 0 0 0 0 0 0 0 0 0 2 2 3 0 0 35 10 6 2 7 29 65 94 118
0 0 0 4 3 5 5 20 9 7 12 8 0 0 0 0 0 0 0 0 0 0 0 0 0 0 0 0 0 0 3 0 0 0 0 0 7 0 0 4 5 8 100
0 0 0 0 0 0 4 0 0 0 0 0 0 0 0 0 0 0 0 0 0 0 0 0 0 0 0 0 1 5 22 13 4 3 1 6 20 20 11 0 0 0 29
0 0 0 0 0 0 0 0 0 0 0 0 0 1 0 0 0 0 0 0 0 0 0 0 0 0 0 6 21 15 21 19 18 22 12 5 0 3 0 0 0 0 0
14 16 5 0 0 0 0 0 0 0 0 7 3 0 0 0 0 0 0 0 0 0 0 0 0 1 8 26 25 22 29 15 3 5 5 9 0 0 0 1 0 0 0
3 1 0 0 3 0 0 0 0 0 0 0 0 0 0 0 0 0 0 0 0 0 0 5 1 8 0 2 1 0 23 30 26 21 14 3 0 0 1 0 0 0 0
11 0 14 31 13 16 26 13 13 8 5 15 0 0 0 1 9 0 0 0 0 0 0 0 0 2 3 9 4 14 28 29 14 14 23 4 0 8 6 8 18 4 0
20 34 26 27 35 23 32 73 33 10 23 9 3 12 4 11 1 0 3 10 0 0 0 8 2 6 4 10 7 3 5 11 11 16 14 4 10 7 9 22 39 41 23
28 35 14 2 3 2 2 16 12 24 23 15 22 13 0 0 0 4 0 0 0 0 0 0 0 3 12 16 10 0 0 0 0 7 15 8 0 0 2 1 0 2 18
0 0 0 4 12 27 24 11 19 16 18 26 21 0 0 2 0 0 0 0 0 2 6 26 24 31 33 43 38 31 42 25 23 26 22 29 41 0 0 0 0 0 23
1 0 0 0 0 0 0 0 0 2 2 3 0 0 3 0 0 0 5 3 3 21 10 0 0 0 0 2 7 9 15 0 0 0 0 9 18 13 2 7 7 4 10
0 4 2 0 0 0 0 4 5 26 26 18 10 0 8 0 0 1 0 0 0 0 0 2 8 12 8 3 0 0 0 0 0 0 0 0 0 7 3 3 10 11 5
2 5 1 0 0 0 0 0 1 27 40 26 8 15 2 0 0 0 0 0 0 2 1 0 7 12 7 0 0 0 0 0 0 0 0 0 0 51 9 1 1 0 0
0 0 0 0 0 0 0 0 0 8 121 64 47 58 25 10 2 0 0 0 1 0 0 13 13 9 3 0 0 0 0 0 0 0 0 0 0 1 56 52 4 0 0
0 0 0 0 0 0 0 0 0 0 54 52 85 86 22 14 9 1 0 0 0 0 11 23 17 1 0 0 0 0 0 0 0 0 0 0 0 0 5 7 0 0 0
0 0 0 0 0 0 0 0 0 0 0 20 114 31 29 1 2 1 1 0 0 0 14 26 2 0 0 0 1 0 0 0 0 0 0 0 0 0 0 0 0 0 0
0 0 0 0 0 0 0 0 0 0 6 20 33 25 19 17 21 0 3 0 0 3 25 1 0 0 0 0 0 0 0 0 0 0 0 0 0 0 0 0 0 0 0
0 0 0 0 0 0 0 0 0 0 16 8 18 5 2 18 2 0 1 0 4 11 0 0 0 0 0 0 0 0 0 0 0 0 0 0 0 0 0 0 0 0 0
1 0 0 0 0 0 0 0 0 0 49 18 0 3 3 0 0 2 0 0 0 6 0 0 0 0 0 0 0 0 0 0 0 0 0 0 0 0 0 0 0 0 0
0 0 0 0 0 0 0 0 0 1 0 19 11 11 0 0 0 0 0 0 3 1 0 0 0 0 0 0 0 0 0 0 0 0 0 0 0 0 0 0 0 0 0
0 0 0 0 0 2 1 1 0 0 0 3 13 11 1 0 0 0 0 3 3 0 0 0 0 0 0 0 0 0 0 0 0 0 0 0 0 0 0 0 0 0 0
0 0 0 0 1 0 1 0 0 0 0 0 0 0 0 0 0 0 2 1 1 0 0 0 0 0 0 0 0 0 0 0 0 0 0 0 0 0 0 0 0 0 0
0 0 0 0 0 0 5 0 0 0 0 0 0 0 0 0 0 0 1 1 0 0 0 0 0 0 0 0 0 0 0 0 0 0 0 0 0 0 0 0 0 0 0
0 0 0 0 0 1 2 1 0 0 0 0 0 0 0 2 1 3 0 0 0 0 0 0 0 0 0 0 0 0 0 0 0 0 0 0 0 0 0 0 0 0 0

GFSMW_con_mucape_003.txt.gz
CAPE
0 0 3 20 63 203 222 165 83 19 54 102 142 54 18 3 0 0 0 0 0 0 0 0 0 0 0 0 0 0 0 0 0 0 0 0 0 0 10 44 105 125 86
79 98 134 135 81 156 193 137 115 82 39 48 50 39 10 1 0 0 0 0 0 0 0 0 0 0 0 0 0 0 0 0 0 0 0 0 0 0 0 15 71 89 41
0 56 125 133 121 88 141 165 147 109 83 57 42 29 8 4 0 0 0 0 0 0 0 0 0 0 0 0 0 0 0 0 0 0 0 0 0 0 0 0 0 0 28
0 0 5 2 0 2 0 2 11 24 8 3 0 0 0 0 0 0 2 0 0 0 0 0 0 0 0 0 0 0 0 0 0 0 1 25 27 21 6 0 0 0 32
0 0 0 0 0 0 0 0 0 0 0 0 0 0 0 0 0 0 0 0 0 0 0 0 0 0 0 0 0 0 0 0 8 15 24 39 28 10 6 1 0 0 0
0 0 0 0 0 0 0 0 0 0 0 0 0 0 0 0 0 0 0 0 0 0 0 0 0 0 0 0 0 0 2 6 16 32 6 20 13 4 2 0 0 0 0
0 0 0 0 0 0 0 0 0 0 0 0 0 0 0 0 0 0 2 0 1 4 0 0 0 0 0 0 0 4 4 18 35 24 12 12 0 0 0 30 0 0 0
0 0 0 0 1 0 0 0 0 0 0 0 0 0 0 1 10 0 0 0 0 0 0 0 0 0 0 1 5 8 9 28 26 23 6 10 0 1 0 2 29 0 0
0 0 0 0 1 2 1 0 0 2 11 18 15 16 26 29 20 6 0 0 0 0 1 12 0 4 10 1 0 0 0 0 0 1 15 15 9 17 7 5 18 10 0
1 0 1 5 0 0 0 0 12 30 30 35 40 36 55 43 39 0 0 0 0 12 28 0 0 0 0 0 0 0 0 0 0 0 5 17 17 43 7 4 2 1 0
0 0 0 1 0 2 10 4 12 2 4 22 18 25 24 8 0 0 0 0 0 1 0 0 0 0 7 22 37 33 12 13 21 28 29 16 13 0 16 1 0 0 1
0 0 0 0 0 0 0 0 0 0 0 0 0 0 0 6 2 0 2 0 0 0 0 0 0 0 0 0 0 5 14 1 3 3 1 1 0 0 0 10 1 0 2
0 0 0 0 0 4 3 0 0 0 0 6 42 49 43 23 2 21 12 2 0 0 0 0 0 0 0 0 0 0 0 0 0 0 0 0 0 0 0 0 0 8 5
0 0 0 0 0 1 0 0 0 0 0 24 45 44 40 29 15 3 7 2 0 0 0 0 0 0 0 0 0 0 0 1 1 0 0 0 0 0 0 0 2 7 1
0 0 0 0 0 0 0 0 0 0 0 0 6 45 49 20 18 35 14 0 0 0 0 0 0 0 0 0 0 1 6 4 0 0 0 0 0 0 23 12 5 6 4
0 0 0 0 0 0 0 0 0 0 0 0 0 0 25 42 24 20 1 0 0 0 0 0 0 0 0 0 0 1 0 0 0 0 0 0 0 0 0 0 1 11 0
0 0 0 0 0 0 0 0 0 0 0 0 0 1 3 4 3 3 3 13 10 0 0 0 0 0 2 6 3 0 0 0 0 0 0 0 0 0 0 0 0 0 0
0 0 0 0 0 0 0 0 0 0 0 0 0 0 0 0 10 3 7 13 2 0 0 0 0 0 3 0 0 0 0 0 0 0 0 0 0 0 0 0 0 0 0
0 0 0 0 0 0 0 0 0 0 0 0 0 0 0 0 0 5 6 9 0 0 0 0 0 0 0 0 0 0 0 0 0 0 0 0 0 0 0 0 0 0 0
0 0 0 0 0 0 0 0 0 0 0 0 0 0 0 3 4 0 4 9 0 0 0 0 0 0 0 0 0 0 0 0 0 0 0 0 0 0 0 0 0 0 0
0 0 0 0 0 0 0 0 0 0 0 0 0 0 0 5 6 6 0 0 0 0 0 0 1 2 0 0 0 0 0 0 0 0 0 0 0 0 0 0 0 0 0
0 0 0 0 0 0 0 0 0 0 0 0 0 0 0 0 0 1 3 0 0 0 0 1 1 0 0 0 0 0 0 0 0 0 0 0 0 0 0 0 0 0 0
0 0 0 0 0 0 0 0 0 0 0 0 0 0 0 0 2 0 0 0 0 0 0 0 0 0 0 0 0 0 0 0 0 0 0 0 0 0 0 0 0 0 0
0 0 0 0 0 0 0 0 0 0 0 0 0 0 0 0 0 0 0 0 0 0 0 0 0 0 0 0 0 0 0 0 0 0 0 0 0 0 0 0 0 0 0
0 0 0 0 0 0 0 0 0 0 0 0 0 0 0 0 0 0 0 1 1 0 0 0 0 0 0 0 0 0 0 0 0 0 0 0 0 0 0 0 0 0 0
0 0 0 0 0 0 0 0 0 6 3 0 0 0 0 0 3 7 8 1 0 0 0 0 0 0 0 0 0 0 0 0 0 0 0 0 0 0 0 0 0 0 0

GFSMW_con_mucape_006.txt.gz
CAPE
131 192 154 138 353 978 856 332 299 209 87 46 86 101 34 26 16 9 9 3 3 1 0 0 0 0 0 0 0 0 0 0 0 0 0 0 0 0 0 0 0 0 7
134 141 105 113 263 232 149 76 28 18 19 43 44 42 40 34 31 8 7 0 0 0 0 0 0 0 0 0 0 0 0 0 0 0 0 0 0 0 0 0 0 0 0
96 116 75 83 123 130 63 23 18 38 54 49 49 46 44 22 6 0 0 0 0 0 0 0 0 0 0 0 0 0 0 0 0 0 0 0 0 0 0 0 0 0 0
21 14 13 9 0 0 0 0 0 0 0 0 0 0 0 0 0 0 0 0 0 0 0 0 0 0 0 0 0 0 0 0 0 0 0 5 9 0 0 0 0 0 0
0 0 0 0 0 0 0 0 0 0 0 0 0 0 0 0 0 0 0 0 0 0 0 2 6 4 0 0 0 0 0 0 1 0 1 1 1 6 0 0 0 0 0
0 0 0 0 0 0 0 0 0 0 0 0 0 0 0 0 0 0 0 0 2 1 0 0 0 0 0 0 0 0 0 0 4 11 12 7 9 4 4 0 0 0 0
0 0 0 0 0 0 0 0 0 0 0 0 0 0 0 0 0 7 20 0 1 4 0 0 0 0 0 0 0 0 0 4 3 12 16 10 11 4 3 15 5 0 0
0 0 0 0 0 0 0 0 0 3 4 0 4 3 11 26 15 18 29 0 8 0 0 0 3 4 0 0 0 0 0 0 0 0 0 0 3 25 19 15 12 0 0
0 0 0 0 0 0 0 1 14 10 0 0 2 8 11 18 21 6 0 0 0 0 1 6 18 0 0 0 0 0 0 0 0 0 0 1 1 3 28 42 0 5 0
0 0 0 3 0 0 12 32 26 18 2 0 0 0 0 0 0 0 0 0 1 5 21 14 0 0 0 0 0 0 0 0 0 7 8 2 6 6 11 30 23 0 0
0 1 8 1 1 8 5 0 0 0 1 0 0 0 0 7 7 0 2 11 6 0 33 17 7 0 0 0 0 0 0 10 0 0 0 0 0 0 0 0 0 0 0
6 5 6 2 5 6 0 0 0 0 0 0 0 0 13 35 16 13 16 20 28 24 8 0 0 0 0 0 0 0 0 0 0 0 0 0 0 0 0 0 0 0 0
7 0 1 2 0 0 0 0 0 0 0 0 0 0 0 11 34 38 26 25 15 9 1 0 0 0 0 0 0 0 0 0 0 1 1 0 0 0 0 0 0 0 0
0 0 0 0 0 0 0 0 0 0 0 0 0 0 0 0 5 33 17 14 9 3 5 0 0 0 0 0 0 0 0 0 0 2 2 0 0 0 0 0 0 0 0
2 2 0 0 0 0 0 0 0 0 0 0 0 0 0 0 3 31 32 18 0 1 0 0 0 0 0 0 1 0 0 2 0 0 0 0 0 0 0 0 0 0 0
9 0 0 0 0 0 0 0 0 0 0 0 0 0 0 0 2 0 0 0 1 4 0 7 1 0 0 0 0 0 0 0 0 0 0 0 0 0 0 0 0 0 0
6 0 0 0 0 0 0 0 0 0 0 0 0 0 0 0 0 1 2 17 3 2 9 1 0 0 0 0 0 0 0 0 0 0 0 0 0 0 0 0 0 0 0
0 0 0 0 0 0 0 0 0 0 0 0 0 0 0 0 0 5 7 3 2 1 0 0 0 0 0 0 0 0 0 0 0 0 0 0 0 0 0 0 0 0 0
0 0 0 0 0 0 0 0 0 0 0 0 0 0 0 0 0 3 7 4 5 2 0 0 0 0 0 0 0 0 0 0 0 0 0 0 0 0 0 0 0 0 0
0 0 0 0 0 0 0 0 0 0 0 0 0 0 0 0 0 2 6 1 0 0 0 0 0 0 0 0 0 0 0 0 0 0 0 0 0 0 0 0 0 0 0
0 0 0 0 0 0 0 0 0 0 0 0 0 0 0 0 0 0 0 0 0 0 0 0 0 0 0 0 0 0 0 0 0 0 0 0 0 0 0 0 0 0 0
0 0 0 0 0 0 0 0 0 0 0 0 0 0 0 0 0 0 0 1 0 0 0 0 0 0 0 0 0 0 0 0 0 0 0 0 0 0 0 0 0 0 0
0 0 0 0 0 0 0 0 0 0 0 0 0 0 0 0 0 0 0 0 0 0 0 0 0 0 0 0 0 0 0 0 0 0 0 0 0 0 0 0 0 0 0
0 0 0 0 0 0 0 0 0 0 0 0 0 0 0 0 0 0 0 0 0 1 0 0 0 0 0 0 0 0 0 0 0 0 0 0 0 0 0 0 0 0 0
0 0 0 0 0 0 0 0 0 0 0 4 5 0 0 0 0 0 0 2 3 0 0 0 0 0 0 0 0 0 0 0 0 0 0 0 0 0 0 0 0 0 0
0 0 0 0 0 0 0 0 0 0 0 0 0 0 0 0 0 0 0 1 0 0 0 0 0 0 0 0 0 0 0 0 0 0 0 0 0 0 0 0 0 0 0

GFSMW_con_mucape_009.txt.gz
CAPE
103 381 451 652 716 776 943 564 252 105 100 102 117 122 115 27 44 37 47 50 46 0 0 0 0 0 0 0 0 0 0 0 0 0 0 0 0 0 0 0 0 0 0
150 311 353 746 932 771 445 171 136 88 74 133 105 72 33 31 23 30 19 5 0 0 0 0 0 0 0 0 0 0 0 0 0 0 0 0 0 0 0 0 0 0 0
110 98 134 167 158 104 26 19 10 78 104 70 12 0 0 0 0 0 0 0 0 0 0 0 0 0 0 0 0 0 0 0 0 0 0 0 0 0 0 0 0 0 0
0 3 1 2 6 0 0 0 0 0 0 0 0 0 0 0 0 0 0 0 0 0 0 0 0 0 0 0 0 0 0 0 0 0 0 0 0 0 0 0 0 0 0
0 0 0 0 0 0 0 0 0 0 0 0 0 0 0 0 0 0 0 0 0 0 0 0 1 0 0 0 0 0 0 0 0 0 0 0 0 13 0 0 0 0 0
0 0 0 0 0 0 0 0 0 0 0 0 0 0 0 0 0 0 0 1 1 0 0 5 7 0 0 0 0 0 0 0 0 0 0 0 0 0 26 0 0 0 0
0 0 5 0 0 0 0 0 0 0 0 0 0 0 0 0 0 0 5 12 7 1 4 0 0 0 0 0 0 0 0 0 0 0 0 0 0 3 30 37 0 0 0
6 1 0 0 0 0 0 0 0 0 0 0 0 0 0 0 1 10 5 0 0 0 0 0 3 2 0 7 0 0 0 0 0 0 0 0 0 0 9 24 0 0 0
0 0 0 0 0 0 0 0 0 0 0 0 0 0 0 0 0 0 0 0 0 0 6 12 9 22 0 0 0 0 0 0 0 0 0 6 0 0 0 0 17 44 0
0 0 0 0 0 1 0 2 10 2 0 0 0 0 0 0 0 0 0 0 2 24 42 40 21 28 0 0 0 0 0 0 0 0 0 0 0 0 0 0 0 0 16
2 2 3 10 2 0 2 2 0 0 0 0 0 0 0 0 0 0 0 0 15 17 39 31 11 2 4 0 0 0 0 0 0 0 0 0 0 0 0 0 0 0 0
8 19 21 12 0 0 0 0 0 0 0 0 0 0 0 0 0 0 0 4 14 21 27 5 4 0 0 0 0 0 0 0 0 0 0 2 0 0 0 0 0 0 0
8 12 8 14 1 2 0 0 0 0 0 0 0 0 0 0 0 0 0 9 3 0 11 4 0 1 0 0 0 0 0 2 0 3 3 0 0 0 0 0 0 0 0
3 7 7 14 7 1 0 0 0 0 0 0 0 0 0 0 0 0 0 0 0 19 1 0 0 0 0 0 0 0 0 0 1 1 0 0 0 0 0 0 0 0 0
0 5 10 7 3 0 0 0 0 0 0 0 0 0 0 0 0 0 0 0 4 15 0 0 0 0 0 0 0 0 0 0 0 0 0 0 0 0 0 0 0 0 0
21 30 33 14 0 0 0 0 0 0 0 0 0 0 0 0 0 0 0 10 17 15 2 1 0 0 0 0 0 0 0 0 0 0 0 0 0 0 0 0 0 0 0
18 12 3 0 0 0 0 0 0 0 0 0 0 0 0 0 0 0 0 7 5 5 0 0 0 0 0 0 0 0 0 0 0 0 0 0 0 0 0 0 0 0 0
17 12 0 0 0 0 0 0 0 0 0 0 0 0 0 0 0 0 0 2 2 1 0 0 0 0 0 0 0 0 0 0 0 0 0 0 0 0 0 0 0 0 0
0 0 0 0 0 0 0 0 0 0 0 0 0 0 0 0 0 0 0 0 2 0 0 0 0 0 0 0 0 0 0 0 0 0 0 0 0 0 0 0 0 0 0
0 0 0 0 0 0 0 0 0 0 0 0 0 0 0 0 0 0 0 0 0 0 0 0 0 0 0 0 0 0 0 0 0 0 0 0 0 0 0 0 0 0 0
0 0 0 0 0 0 0 0 0 0 0 0 0 0 0 0 0 0 0 0 0 0 0 0 0 0 0 0 0 0 0 0 0 0 0 0 0 0 0 0 0 0 0
0 0 0 0 0 0 0 0 0 0 0 0 0 0 0 0 0 0 0 0 0 0 0 0 0 0 0 0 0 0 0 0 0 0 0 0 0 0 0 0 0 0 0
0 0 0 0 0 0 0 0 0 0 0 0 0 0 5 0 0 0 0 0 0 0 0 0 0 0 0 0 0 0 0 0 0 0 0 0 0 0 0 0 0 0 0
0 0 0 0 0 0 0 0 0 0 0 0 0 0 6 0 0 0 0 0 1 4 0 0 0 0 0 0 0 0 0 0 0 0 0 0 0 0 0 0 0 0 0
0 0 0 0 0 0 0 0 0 0 0 0 0 0 0 0 0 0 0 1 1 0 0 0 0 0 0 0 0 0 0 0 0 0 0 0 0 0 0 0 0 0 0
0 0 0 0 0 0 0 0 0 0 0 0 0 0 0 0 0 0 0 0 0 0 0 0 0 0 0 0 0 0 0 0 0 0 0 0 0 0 0 0 0 0 0

GFSMW_con_mucape_015.txt.gz
CAPE
244 259 201 168 246 362 444 450 261 142 102 67 35 8 23 22 30 9 0 0 0 0 0 0 0 0 0 0 0 0 0 0 0 0 0 0 0 0 0 0 0 0 0
371 364 298 310 412 459 397 231 102 35 14 7 9 4 0 0 0 0 0 0 0 0 0 0 0 0 0 0 0 0 0 0 0 0 0 0 0 0 0 0 0 0 0
312 508 314 100 6 18 27 0 0 0 0 0 0 0 0 0 0 0 0 0 0 0 0 0 0 0 0 0 0 0 0 0 0 0 0 0 0 0 0 0 0 7 0
176 17 0 0 0 0 0 0 0 0 0 0 0 0 0 0 0 0 0 0 0 0 0 0 0 0 0 0 0 0 0 0 0 0 0 0 0 0 0 0 0 0 0
0 0 0 0 0 0 0 0 0 0 0 0 0 0 0 0 0 0 0 0 0 0 0 0 0 0 0 0 0 0 0 0 4 1 0 0 0 0 0 0 0 0 0
5 5 0 0 0 0 0 0 0 0 0 0 0 0 0 0 0 0 0 0 0 0 0 0 0 0 0 0 8 4 1 0 0 0 0 0 0 0 0 0 0 0 0
4 6 2 3 0 0 0 0 0 0 0 0 0 0 0 0 0 0 0 0 0 0 0 0 0 0 0 6 5 1 0 0 0 0 0 0 0 0 0 0 0 0 0
0 2 4 7 0 0 0 0 0 0 0 0 0 0 0 0 0 0 0 0 0 0 0 0 0 0 9 9 0 0 0 0 0 0 0 0 17 44 60 42 7 0 0
0 1 0 0 0 0 0 0 0 0 0 0 0 0 0 0 0 0 0 0 0 0 0 0 0 11 16 0 0 0 2 1 7 1 27 32 31 45 16 3 16 0 0
0 0 0 0 0 0 1 8 0 3 6 3 0 0 0 0 0 0 0 0 0 0 0 0 12 17 19 0 0 2 3 4 0 0 27 40 14 0 0 1 0 0 0
0 0 0 0 2 5 9 17 2 3 8 0 0 0 0 0 0 0 0 0 0 0 0 7 12 15 16 7 4 2 0 0 0 0 9 1 0 0 0 0 0 0 0
0 1 4 5 11 14 24 22 13 7 0 0 0 0 0 0 0 0 0 0 0 0 0 0 6 10 28 3 0 0 0 0 0 0 0 0 0 0 0 0 0 0 0
0 9 11 5 11 15 26 41 17 0 0 0 0 0 0 0 0 0 0 0 0 0 0 0 10 9 24 3 0 0 0 0 0 0 0 0 0 0 0 0 0 0 0
0 8 13 16 18 26 22 9 0 0 0 0 0 0 0 0 0 0 0 0 0 0 18 25 22 8 5 4 0 0 0 0 0 0 0 0 0 0 0 0 0 0 0
0 6 16 18 19 14 3 3 0 0 0 0 0 0 0 0 0 0 0 0 0 4 38 27 8 1 1 0 0 0 0 0 0 0 0 0 0 0 0 0 0 0 0
0 3 15 21 14 5 1 0 0 0 0 0 0 0 0 0 0 0 0 0 0 2 9 0 0 0 0 2 0 0 0 0 0 0 0 0 0 0 0 0 0 0 0
0 2 22 20 21 5 0 0 0 0 0 0 0 0 0 0 0 0 0 0 0 0 2 6 14 5 2 0 0 0 0 0 0 0 0 0 0 0 0 0 0 0 0
0 8 20 29 15 0 3 0 0 0 0 0 0 0 0 0 0 0 0 0 0 0 1 2 0 0 0 0 0 0 0 0 0 0 0 0 0 0 0 0 0 0 0
0 11 34 15 0 0 0 0 0 0 0 0 0 0 0 0 0 0 0 0 0 0 0 0 0 0 0 0 0 0 0 0 0 0 0 0 0 0 0 0 0 0 0
0 19 23 5 0 0 0 0 0 0 0 0 0 0 0 0 0 0 0 0 0 0 0 0 0 0 0 0 0 0 0 0 0 0 0 0 0 0 0 0 0 0 0
10 12 2 0 0 0 0 0 0 0 0 0 0 0 0 0 0 0 0 0 0 0 0 0 0 0 0 0 0 0 0 0 0 0 0 0 0 0 0 0 0 0 0
6 14 6 0 0 0 0 0 0 0 0 0 0 0 0 0 0 0 0 0 0 0 0 0 0 0 0 0 0 0 0 0 0 0 0 0 0 0 0 0 0 0 0
15 8 3 0 0 0 0 0 0 0 0 0 0 0 0 0 0 0 0 0 0 0 0 0 0 0 0 0 0 0 0 0 0 0 0 0 0 0 0 0 0 0 0
14 7 0 0 0 0 0 0 0 0 0 0 0 0 0 0 0 0 0 0 0 0 0 0 0 0 0 0 0 0 0 0 0 0 0 0 0 0 0 0 0 0 0
1 0 0 0 0 0 0 0 0 0 0 0 0 0 0 0 0 0 0 0 0 0 0 0 0 0 0 0 0 0 0 0 0 0 0 0 0 0 0 0 0 0 0
0 0 0 0 0 0 0 0 0 0 0 0 0 0 0 0 0 0 0 0 0 0 0 0 0 0 0 0 0 0 0 0 0 0 0 0 0 0 0 0 0 0 0

GFSMW_con_mucape_021.txt.gz
CAPE
798 828 853 840 914 1319 1613 1207 940 792 461 613 598 423 19 5 1 0 0 0 0 0 0 0 0 0 0 0 1 5 3 0 0 0 3 1 3 16 1 6 17 7 2
812 924 1072 1151 1183 1342 1437 1198 940 810 787 670 345 102 144 14 0 0 0 0 0 0 0 0 0 0 0 0 0 0 0 0 1 1 0 0 0 0 0 0 0 31 8
902 1016 1180 1299 1427 1216 1066 953 851 769 437 256 66 27 0 0 0 0 0 0 0 0 0 0 0 0 0 0 0 2 6 1 1 2 4 0 0 0 2 3 2 45 12
930 1139 1297 1444 1356 1256 1190 838 501 212 45 2 0 0 12 40 0 0 0 0 0 0 0 0 0 0 0 0 2 1 8 5 8 16 12 26 32 0 0 1 4 24 12
985 1168 1184 939 766 392 258 100 5 0 0 0 0 0 0 0 0 0 0 0 0 0 0 0 0 2 3 4 12 21 20 20 38 32 34 13 0 1 10 0 8 10 15
901 378 282 153 41 2 0 0 0 0 0 0 0 0 0 0 0 0 3 6 0 0 0 0 0 0 2 12 23 35 26 43 46 20 24 25 19 19 25 24 31 58 18
196 2 0 0 0 0 0 0 0 0 0 0 0 0 0 0 1 0 8 0 0 0 0 0 0 0 0 12 21 24 29 69 43 29 40 32 40 44 38 41 37 42 25
0 0 0 0 0 0 0 0 0 0 0 0 0 0 0 4 0 0 0 0 0 0 0 0 0 1 9 20 33 22 73 62 54 50 53 57 58 60 58 51 65 52 36
0 0 0 0 0 0 0 0 0 0 0 0 0 0 4 0 0 0 0 0 0 0 0 0 0 6 12 24 51 74 82 59 52 78 69 58 70 58 53 55 59 76 52
0 0 0 0 0 0 0 0 0 0 0 0 0 1 2 1 0 0 0 0 0 0 0 0 0 0 10 71 82 60 65 81 88 88 39 45 53 50 50 44 71 67 81
8 0 0 0 0 0 0 0 0 0 0 0 0 9 16 0 0 0 0 0 0 0 0 0 0 2 8 26 39 45 59 66 91 90 39 58 53 60 44 92 77 85 75
28 1 0 0 0 0 0 0 1 4 0 0 1 8 0 0 0 0 0 0 0 0 0 0 4 14 27 27 49 50 69 75 44 39 46 39 29 32 51 50 40 47 46
73 12 1 0 0 0 0 3 4 4 4 3 4 0 0 0 0 0 0 0 0 0 0 4 10 18 33 41 51 35 31 35 38 32 26 27 20 27 14 13 12 7 2
74 51 3 0 0 0 5 7 4 3 9 18 0 0 0 0 0 0 0 0 0 0 3 7 13 32 34 28 26 15 31 35 33 24 31 28 7 3 0 0 0 0 0
24 21 0 0 0 0 22 22 0 0 11 31 0 0 0 0 0 0 0 0 1 3 5 9 20 32 33 13 14 19 39 34 25 22 13 7 0 0 0 0 0 0 0
0 0 0 0 0 0 13 0 0 9 11 15 0 0 0 0 0 0 0 0 1 6 7 14 20 36 28 0 0 0 0 5 19 13 4 1 0 0 0 0 0 0 0
0 0 0 0 0 0 0 0 11 35 21 5 0 0 0 0 0 0 0 0 4 9 19 21 17 29 14 0 0 0 0 3 13 6 0 0 0 0 0 0 0 0 0
0 0 0 0 0 0 0 14 37 30 10 4 0 0 0 0 0 0 0 0 6 14 13 20 24 23 5 0 0 0 0 8 9 0 0 0 0 0 0 0 0 0 0
0 0 0 0 0 0 11 25 48 42 11 7 0 0 0 0 0 0 0 0 3 10 18 21 18 14 11 0 0 0 0 7 0 0 0 0 0 0 0 0 0 0 0
0 0 0 0 0 0 14 41 41 6 2 0 0 0 0 0 0 0 0 0 5 8 20 9 6 5 11 0 0 0 0 0 0 0 0 0 0 0 0 0 0 0 0
0 0 0 4 4 3 48 43 16 5 0 0 0 0 0 0 0 0 0 4 6 15 12 13 5 10 0 0 0 0 0 0 0 0 0 0 0 0 0 0 0 0 0
0 0 5 5 4 7 13 7 7 0 0 0 0 0 0 0 0 0 2 7 17 23 19 40 15 41 0 0 0 0 0 0 0 0 0 0 0 0 0 0 0 0 0
0 0 13 22 37 25 7 0 0 0 0 0 0 0 0 0 0 0 1 14 14 17 21 14 3 0 53 35 0 0 0 0 0 0 0 0 0 0 0 0 0 0 0
0 0 5 19 22 2 0 0 0 0 0 0 0 0 0 0 0 0 0 6 17 23 5 14 0 27 42 32 34 0 0 0 0 0 0 0 0 0 0 0 0 0 0
1 6 17 22 13 0 0 0 0 0 0 0 0 0 0 5 0 0 0 0 13 12 17 10 0 82 0 0 5 15 19 0 0 0 0 0 0 0 0 0 0 0 0
8 10 2 5 1 0 0 0 0 0 0 0 0 0 0 1 2 0 0 0 0 0 0 0 0 0 0 0 0 0 0 0 0 0 0 0 0 0 0 0 0 0 0

GFSMW_con_mucape_024.txt.gz
CAPE
495 542 633 597 551 1311 1373 1187 742 498 485 229 190 267 178 14 3 0 0 0 0 0 0 0 0 0 0 0 0 0 0 0 0 0 0 0 0 0 0 0 0 0 9
627 844 871 1002 1199 1573 1483 931 772 615 498 458 398 187 5 1 0 0 0 0 0 0 0 0 0 0 0 0 0 0 0 0 0 0 0 0 0 0 0 0 0 0 1
846 922 1070 1192 1419 1450 1295 968 776 712 735 547 165 26 9 0 0 0 0 0 0 0 0 0 0 0 0 0 0 0 0 0 0 0 0 0 0 0 0 0 0 0 0
809 896 1088 1245 1245 1096 954 964 764 738 311 138 9 1 0 0 0 0 0 0 0 0 0 0 0 0 0 0 0 0 0 0 0 0 0 0 0 0 0 0 0 0 0
738 977 1136 1162 944 1109 1167 906 491 195 96 0 0 0 0 0 0 0 0 0 0 0 0 0 0 0 0 0 0 0 0 0 0 3 0 0 0 0 0 0 0 0 0
840 926 1212 953 784 659 462 171 79 8 0 0 0 0 0 0 0 0 0 0 0 0 0 0 0 0 0 0 0 6 7 5 3 11 4 0 0 0 0 0 0 0 0
871 919 752 515 237 90 42 6 0 0 0 0 0 0 0 0 0 0 10 4 0 0 0 0 0 0 0 0 2 0 0 5 2 5 0 0 0 0 6 9 1 1 0
663 304 225 72 1 0 0 0 0 0 0 0 0 0 0 0 0 9 22 15 0 0 0 0 0 0 0 0 4 0 4 3 8 0 0 0 2 0 7 5 1 0 0
201 27 0 0 0 0 0 0 0 0 0 0 0 0 0 0 1 14 19 0 0 0 0 0 0 0 0 1 4 14 18 33 27 12 9 0 1 0 6 13 4 2 0
91 0 0 0 0 0 0 0 0 0 0 0 0 0 0 0 11 21 0 0 0 0 0 0 0 0 0 0 3 30 22 16 16 23 11 10 0 0 12 6 0 0 0
44 0 0 0 0 0 0 0 0 0 0 0 0 3 7 5 15 1 0 0 0 0 0 0 0 0 0 7 11 9 17 15 17 24 17 5 1 0 0 0 0 0 0
79 0 0 0 0 0 0 0 0 0 0 0 4 7 11 9 16 0 0 0 0 0 0 0 0 0 2 6 7 6 13 15 9 8 1 2 1 0 0 0 0 0 0
121 13 0 0 0 0 0 0 0 0 0 21 4 11 15 27 1 0 0 0 0 0 0 0 0 0 5 24 7 10 0 0 0 6 1 0 0 0 0 0 0 0 0
161 129 10 1 0 0 0 0 0 0 0 42 12 6 20 23 0 0 0 0 0 0 0 0 0 5 8 9 4 0 0 1 2 0 0 0 0 0 0 0 0 0 0
63 79 161 61 41 32 4 0 0 0 25 36 7 34 30 18 0 0 0 0 0 0 0 0 0 4 18 3 3 2 0 0 0 0 0 0 0 0 0 0 0 0 0
0 40 143 144 121 90 50 0 0 0 6 3 24 22 22 0 0 0 0 0 0 0 2 0 2 7 6 8 2 0 0 0 0 0 0 0 0 0 0 0 0 0 0
0 2 40 91 95 38 0 0 0 0 5 8 24 14 0 0 0 0 0 0 0 0 1 8 1 2 1 0 0 0 0 0 0 0 0 0 0 0 0 0 0 0 0
0 0 8 49 36 22 1 1 0 0 5 14 7 3 2 0 0 0 0 0 0 0 0 2 3 3 5 0 1 0 0 0 0 0 0 0 0 0 0 0 0 0 0
0 0 0 11 2 3 3 1 0 0 0 1 0 0 0 0 0 0 0 0 0 0 0 0 3 2 0 0 0 0 0 0 0 0 0 0 0 0 0 0 0 0 0
0 0 0 1 1 5 4 0 4 1 3 3 0 0 0 0 0 0 0 0 0 0 1 1 2 0 0 0 0 0 0 0 0 0 0 0 0 0 0 0 0 0 0
0 1 2 1 1 0 0 4 27 9 3 0 0 0 0 0 0 0 0 0 0 0 1 1 0 0 0 0 0 0 0 0 0 0 0 0 0 0 0 0 0 0 0
0 0 0 0 0 1 23 38 21 0 0 0 0 0 0 0 0 0 0 0 0 1 5 4 0 0 0 0 0 0 0 0 0 0 0 0 0 0 0 0 0 0 0
0 0 0 2 3 3 16 22 5 3 0 0 0 0 0 0 0 0 0 0 0 0 3 4 1 1 0 0 0 0 0 0 0 0 0 0 0 0 0 0 0 0 0
0 1 0 1 8 2 0 0 0 0 0 0 0 0 0 0 0 0 0 0 0 0 0 5 4 2 0 0 0 0 0 0 0 0 0 0 0 0 0 0 0 0 0
0 0 0 8 10 2 0 0 0 0 0 0 0 0 0 0 0 0 0 0 0 0 0 0 7 9 0 0 0 0 0 0 0 0 0 0 0 0 0 0 0 0 0
0 0 0 0 0 0 0 0 0 0 0 0 0 0 0 0 0 0 0 0 0 0 0 0 0 0 0 0 0 0 0 0 0 0 0 0 0 0 0 0 0 0 0

GFSMW_con_mucape_027.txt.gz
CAPE
138 84 19 193 385 463 415 543 518 481 400 49 55 71 57 6 0 5 9 0 0 0 0 0 0 0 0 0 0 0 0 0 0 0 0 0 0 0 0 0 0 0 0
264 219 296 218 741 732 701 638 611 516 308 119 54 115 6 0 0 0 0 0 0 0 0 0 0 0 0 0 0 0 0 0 0 0 0 0 0 0 0 0 0 0 0
409 515 505 850 1131 895 917 702 694 583 342 144 154 143 0 0 0 0 0 0 0 0 0 0 0 0 0 0 0 0 0 0 0 0 0 0 0 0 0 0 0 0 0
572 623 666 695 1196 1159 1193 765 603 395 286 301 371 190 0 0 0 0 0 0 0 0 0 0 0 0 0 0 0 0 0 0 0 0 0 0 0 0 0 0 0 0 0
713 732 834 1007 1226 1162 896 722 387 384 508 566 132 2 5 0 0 0 0 0 0 2 2 0 0 0 0 0 0 0 0 0 0 0 0 0 0 0 0 0 0 0 0
763 844 970 1021 974 886 790 641 465 194 90 8 0 0 0 0 0 0 0 7 7 12 8 2 0 0 0 0 0 0 0 0 0 3 8 0 0 0 0 0 0 0 0
748 889 1021 1007 791 767 710 676 382 164 137 78 4 0 0 0 0 0 0 2 8 12 1 0 0 0 0 0 0 0 0 0 0 0 0 0 0 0 0 0 0 0 0
798 1012 972 862 764 634 353 338 232 139 101 2 0 0 0 0 0 0 1 3 14 5 0 0 0 0 0 0 0 0 0 0 0 2 5 2 2 6 2 0 0 0 0
837 846 874 876 850 566 299 207 119 46 0 0 0 0 0 0 4 6 4 18 10 1 0 0 0 0 0 0 0 0 1 12 14 12 21 20 18 6 0 0 0 0 0
681 685 702 569 402 88 1 0 0 0 0 0 0 3 8 12 14 9 14 17 3 0 0 0 0 0 0 0 0 0 0 1 2 4 9 14 6 0 0 0 0 0 0
583 383 155 34 7 0 0 0 0 0 0 0 0 1 3 3 8 4 8 13 1 0 0 0 0 0 0 0 0 0 0 2 0 0 1 2 1 6 5 0 0 0 0
429 250 55 0 0 0 0 0 0 0 0 0 0 4 0 3 23 30 36 1 0 0 0 0 0 0 0 0 0 0 0 0 0 0 0 2 4 1 0 0 0 0 0
321 184 43 0 0 0 0 1 2 6 0 0 19 26 9 5 13 33 0 9 0 0 0 0 0 0 0 0 0 1 0 1 0 0 0 0 0 0 0 0 0 0 0
236 107 27 10 4 19 26 37 52 79 81 46 20 36 13 12 17 1 9 0 1 0 0 0 0 0 0 0 0 3 12 7 0 0 0 0 0 0 0 0 0 0 0
106 125 64 58 57 51 61 71 70 73 81 44 1 10 11 12 13 0 0 0 0 3 0 0 0 0 0 0 0 11 10 13 1 0 0 0 0 0 0 0 0 0 0
0 0 24 70 61 57 68 73 71 65 39 3 7 18 9 9 10 1 0 0 4 0 0 0 0 0 0 0 0 1 2 0 0 0 0 0 0 0 0 0 0 0 0
0 0 15 62 73 80 60 54 47 14 8 18 19 14 12 8 6 0 0 0 0 0 0 0 0 0 0 0 0 0 0 0 0 0 0 0 0 0 0 0 0 0 0
0 0 0 12 70 67 60 49 26 41 23 22 13 9 3 1 0 0 0 0 0 0 0 0 0 0 1 0 0 0 1 2 0 0 0 0 0 0 0 0 0 0 0
0 0 0 0 0 27 48 74 53 32 19 5 8 4 0 0 0 0 0 0 0 0 0 0 0 0 0 1 2 1 0 0 0 0 0 0 0 0 0 0 0 0 0
0 0 0 0 0 10 14 26 31 14 7 3 3 5 0 0 0 0 0 0 0 0 0 0 0 1 2 10 5 0 0 0 0 0 0 0 0 0 0 0 0 0 0
0 0 0 3 10 18 28 36 30 25 31 36 21 0 0 0 0 0 0 0 0 0 0 0 4 1 0 1 0 0 0 0 0 0 0 0 0 0 0 0 0 0 0
0 0 0 14 27 38 38 35 45 56 51 12 0 0 0 0 0 0 0 0 0 0 0 0 1 5 2 2 2 0 0 0 0 0 0 0 0 0 0 0 0 0 0
8 10 9 10 18 24 31 17 24 3 0 0 0 0 0 0 0 0 0 0 0 0 0 0 0 5 4 6 3 0 0 0 0 0 0 0 0 0 0 0 0 0 0
9 15 0 0 0 0 0 0 0 0 0 0 0 0 0 0 0 0 0 0 0 0 0 0 0 0 2 2 1 0 0 0 0 0 0 0 0 0 0 0 0 0 0
4 0 0 0 0 0 0 0 0 0 0 0 0 0 0 0 0 0 0 0 0 0 0 0 0 0 0 0 3 0 0 0 0 0 0 0 0 0 0 0 0 0 0
0 0 0 0 0 0 0 0 0 0 0 0 0 0 0 0 0 0 0 0 0 0 0 0 0 0 7 0 0 0 0 0 0 0 0 0 0 0 0 0 0 0 0

GFSMW_con_mucape_030.txt.gz
CAPE
610 591 812 683 345 253 487 346 334 434 339 276 145 31 31 50 41 3 0 0 0 0 0 0 0 0 0 0 0 0 0 0 0 0 0 0 0 0 0 0 0 0 0
242 359 746 717 404 323 401 303 254 501 514 381 143 77 78 137 74 0 0 0 0 0 0 0 0 0 0 0 0 0 0 0 0 0 0 0 0 0 0 0 0 0 0
104 91 401 522 488 428 449 478 392 549 602 537 271 111 90 37 23 0 0 0 0 0 0 0 0 0 0 0 0 0 0 0 0 0 0 0 0 0 0 0 0 0 0
209 149 173 382 494 516 543 722 567 541 543 409 215 136 112 2 0 0 0 0 0 0 0 0 2 0 0 0 0 0 0 0 0 0 0 0 0 0 0 0 0 0 0
384 313 409 598 528 593 752 677 710 738 650 266 139 157 13 0 0 0 0 0 0 0 1 2 0 3 0 0 0 0 0 0 0 0 0 0 0 0 0 0 0 0 0
481 452 656 866 892 845 925 842 799 721 443 313 170 291 126 14 14 20 16 0 0 1 9 1 8 0 0 0 0 0 0 0 0 0 0 0 0 0 0 0 0 0 0
520 593 813 1088 1144 1088 1005 686 558 374 372 454 526 568 391 124 71 73 26 16 6 19 3 5 4 0 0 0 0 0 0 0 0 0 0 0 0 0 1 0 0 0 0
538 726 848 995 1175 1145 769 530 392 501 83 338 100 26 62 71 37 12 21 29 15 0 1 1 0 0 0 0 0 0 0 0 0 0 0 6 5 7 11 12 3 0 0
609 861 991 1061 1043 846 648 592 541 387 236 139 70 72 82 69 44 35 27 6 0 0 0 4 0 0 0 0 0 0 0 0 0 0 0 3 11 15 24 14 6 0 0
786 923 1030 1041 1006 742 683 682 532 419 302 290 119 42 11 13 15 15 0 1 4 1 7 1 0 0 0 0 0 0 0 0 0 0 0 0 3 14 11 1 2 3 2
837 969 1025 986 885 763 603 463 369 335 233 137 13 2 4 11 9 11 13 31 7 3 5 0 0 0 0 0 0 0 0 0 0 0 0 0 0 0 0 0 0 0 0
715 755 742 705 622 507 314 47 11 2 23 51 81 58 34 24 20 28 22 17 21 4 11 0 0 0 0 0 0 0 0 0 0 0 2 1 0 0 0 0 2 0 0
633 656 680 695 552 260 49 1 0 3 38 60 77 75 57 18 17 13 12 6 3 1 0 0 0 0 0 0 0 0 0 0 4 6 0 0 0 0 1 0 0 0 0
626 658 600 467 282 157 115 87 53 42 40 48 56 40 61 12 8 9 3 0 0 0 0 0 0 0 0 0 0 0 0 10 13 6 8 0 0 0 0 0 0 0 0
444 524 346 208 122 87 58 30 37 35 42 57 59 45 32 13 10 9 9 4 0 0 0 0 0 0 0 0 0 0 0 4 10 2 0 0 0 0 0 0 0 0 0
0 0 8 42 44 51 47 44 40 42 67 55 35 41 31 22 16 13 10 4 0 0 0 0 0 0 0 0 0 0 0 0 0 0 0 0 0 0 0 0 0 0 0
0 0 0 0 5 40 74 53 52 58 79 57 31 33 30 17 14 10 7 4 0 0 0 0 0 0 0 0 0 0 0 0 0 0 0 0 0 0 0 0 0 0 0
0 0 0 0 8 45 64 71 71 71 74 59 57 38 13 5 5 7 0 0 0 0 0 0 0 0 0 0 0 0 2 1 2 0 0 0 0 0 0 0 0 0 0
0 0 0 0 17 56 69 61 62 56 52 40 22 14 10 3 2 0 0 0 0 0 0 0 0 0 0 0 1 3 4 0 0 0 0 0 0 0 0 0 0 0 0
0 0 0 0 0 0 8 51 50 41 32 27 29 18 4 0 0 0 0 0 0 0 0 0 0 0 0 0 1 7 3 0 0 0 0 0 0 0 0 0 0 0 0
0 0 0 0 0 1 10 23 28 17 5 28 19 14 6 0 0 0 0 0 0 0 0 0 0 0 0 0 3 3 0 0 0 0 0 0 0 0 0 0 0 0 0
0 0 0 0 6 13 19 22 18 10 9 14 0 0 0 0 0 0 0 0 0 0 0 0 0 0 0 3 2 6 7 2 0 0 0 0 0 0 0 0 0 0 0
0 0 1 5 10 7 5 0 0 1 1 0 0 0 0 0 0 0 0 0 0 0 0 0 0 0 0 0 8 8 2 0 0 0 0 0 0 0 0 0 0 0 0
2 4 9 8 13 1 0 0 0 0 0 0 0 0 0 0 0 0 0 0 0 0 0 0 0 0 0 0 0 0 0 1 0 0 0 0 0 0 0 0 0 0 0
5 9 8 10 7 0 0 0 0 0 0 0 0 0 0 0 0 0 0 0 0 0 0 0 0 0 0 0 0 0 0 0 0 0 0 0 0 0 0 0 0 0 0
0 0 0 0 0 0 0 0 0 0 0 0 0 0 0 0 0 0 0 0 0 0 0 0 0 0 0 0 0 0 0 0 0 0 0 0 0 0 0 0 0 0 0

GFSMW_con_mucape_033.txt.gz
CAPE
305 349 289 223 413 640 718 534 334 318 267 310 327 378 275 123 12 7 0 0 0 0 0 0 0 0 0 0 0 0 0 0 0 0 0 0 0 0 0 0 0 0 0
541 578 531 489 573 726 744 548 317 291 320 334 306 212 123 36 18 30 37 0 0 0 0 0 0 0 0 0 0 0 0 0 0 0 0 0 0 0 0 0 0 0 0
578 675 697 664 638 740 586 584 369 379 326 281 231 197 73 46 62 62 65 0 0 0 0 0 0 0 0 0 0 0 0 0 0 0 0 0 0 0 0 0 0 0 0
302 586 701 722 737 543 454 496 517 399 414 389 373 268 96 44 105 63 53 1 0 0 0 0 0 0 0 0 0 0 0 0 0 0 0 0 0 0 0 0 0 0 0
237 362 562 640 786 569 253 368 411 285 345 501 542 382 225 73 101 51 7 0 0 0 0 0 0 0 0 11 8 0 0 0 0 0 0 0 0 0 0 0 0 0 0
249 324 261 406 636 711 334 271 340 382 275 495 524 414 151 138 86 18 3 9 13 13 1 0 0 7 7 12 0 1 0 0 0 0 0 0 0 0 0 0 0 0 0
247 322 333 335 402 465 500 457 516 473 405 584 610 409 177 79 83 22 49 58 45 37 4 3 18 15 6 9 0 0 0 0 0 0 0 0 0 2 0 0 0 0 0
68 375 481 559 382 423 493 433 620 697 683 750 542 317 85 217 128 94 80 57 39 19 14 12 4 0 9 8 0 0 0 0 0 0 0 0 4 11 10 4 0 0 0
118 336 590 727 728 751 837 789 691 751 693 395 290 311 310 363 346 203 87 55 33 25 4 7 4 3 7 1 0 0 0 0 0 0 0 0 0 0 6 13 9 1 0
239 419 570 841 983 1062 1029 847 791 580 460 376 165 339 343 68 62 44 20 19 24 15 10 1 6 10 1 0 0 0 0 0 0 0 0 0 0 0 6 11 1 2 7
420 543 629 754 941 1058 1159 823 697 563 462 391 250 95 56 72 41 23 25 18 14 4 14 7 10 17 11 0 0 0 0 0 0 0 0 0 0 0 0 0 0 0 0
516 710 804 924 1036 1112 1031 888 661 604 525 342 280 93 52 30 45 55 26 32 25 13 14 5 6 6 5 0 0 0 0 0 0 0 0 0 0 0 0 3 5 0 0
558 769 899 989 1052 1114 1056 819 674 527 332 179 135 54 39 53 51 37 26 7 10 9 16 12 5 1 0 0 0 0 0 0 0 0 0 0 0 0 0 0 0 0 0
404 653 777 940 1061 960 776 601 494 331 123 66 20 28 38 44 47 32 27 15 10 15 14 8 6 0 0 0 0 0 0 0 0 0 0 0 0 0 0 0 0 0 0
254 589 699 751 747 671 561 386 228 108 47 27 40 48 44 51 53 31 13 15 17 12 11 11 3 0 0 0 0 0 0 0 0 0 0 0 0 0 0 0 0 0 0
33 149 307 417 374 326 216 152 95 50 50 42 38 62 58 29 23 11 25 14 10 13 5 0 0 0 0 0 0 0 0 0 0 0 0 0 0 0 0 0 0 0 0
0 0 0 0 3 6 8 18 17 46 48 42 48 61 61 46 35 35 18 14 8 0 0 0 0 0 0 0 0 0 0 0 0 0 0 0 0 0 0 0 0 0 0
0 0 0 0 0 0 0 0 3 27 48 61 73 71 39 48 30 23 18 4 0 0 0 0 0 0 0 0 0 0 0 0 0 0 0 0 0 0 0 0 0 0 0
0 0 0 0 0 0 0 0 22 50 72 75 78 55 43 22 14 13 0 0 0 0 0 0 0 0 0 0 0 0 0 1 3 0 0 0 0 0 0 0 0 0 0
0 0 0 0 0 0 0 0 0 26 58 72 84 72 44 4 0 6 0 0 0 0 0 0 0 0 0 0 0 0 2 4 3 0 0 0 0 0 0 0 0 0 0
0 0 0 0 0 0 0 0 2 9 25 41 35 26 13 11 1 0 0 0 0 0 0 0 0 0 0 0 0 0 1 2 5 5 0 0 0 0 0 0 0 0 0
0 0 0 0 0 0 0 5 0 8 11 12 10 12 10 6 1 0 0 0 0 0 0 0 0 0 0 0 0 0 0 0 9 4 0 0 0 0 0 0 0 0 0
0 0 0 0 1 13 16 15 9 1 0 0 0 0 0 0 0 0 0 0 0 0 0 0 0 0 0 0 0 0 0 0 1 5 3 0 0 0 0 0 0 0 0
0 0 0 2 12 15 12 11 9 4 0 0 0 0 0 0 0 0 0 0 0 0 0 0 0 0 0 0 0 0 0 0 0 0 2 3 0 0 0 0 0 0 0
2 3 0 0 0 10 6 0 0 0 0 0 0 0 0 0 0 0 0 0 0 0 0 0 0 0 0 0 0 0 0 0 1 7 0 0 0 0 0 0 0 0 0
0 0 0 2 0 0 0 0 0 0 0 0 0 0 0 0 0 0 0 0 0 0 0 0 0 0 0 0 0 0 0 0 7 8 0 0 0 0 0 0 0 0 0

GFSMW_con_mucape_036.txt.gz
CAPE
209 107 78 22 35 174 337 390 379 361 389 73 145 279 414 449 431 269 48 0 17 15 18 0 0 0 0 0 0 0 0 0 0 0 0 0 0 0 0 0 0 0 0
222 208 178 115 135 237 371 485 474 460 458 192 177 269 361 332 204 55 16 25 40 0 0 0 0 0 0 0 0 0 0 0 0 0 0 0 0 0 0 0 0 0 0
411 287 294 234 190 288 364 584 630 561 536 463 192 200 222 236 163 47 34 33 33 1 0 0 0 0 0 0 0 0 0 0 0 0 0 0 0 0 0 0 0 0 0
496 480 428 437 297 326 388 598 757 659 319 239 225 241 239 172 58 20 17 19 36 6 0 0 0 0 0 0 0 0 0 0 0 0 0 0 0 0 0 0 0 0 0
461 485 491 519 509 409 405 568 794 817 367 251 321 296 227 149 149 36 32 20 48 7 0 0 0 0 0 0 0 1 2 0 0 0 0 0 0 0 0 0 0 0 0
351 362 352 494 609 638 544 556 711 661 614 343 330 290 272 266 165 100 61 60 51 4 0 2 8 9 6 0 0 3 0 1 0 0 0 0 0 0 0 0 0 0 0
438 281 325 274 458 658 677 692 572 462 496 409 370 380 337 293 166 61 74 79 50 26 49 53 57 50 3 15 5 4 3 0 0 0 0 0 0 0 0 0 0 0 0
215 398 305 290 278 442 638 690 660 192 122 323 353 176 331 342 163 90 81 74 50 63 82 72 58 4 14 12 10 8 9 0 0 0 0 0 0 0 0 0 0 0 0
108 355 350 295 292 303 322 470 663 424 333 286 369 430 413 447 129 82 57 68 71 75 99 80 44 20 44 16 9 8 2 0 0 0 0 0 0 0 0 0 11 0 0
0 16 108 257 244 319 429 418 379 510 525 505 499 484 578 387 246 142 120 128 107 74 87 83 43 23 6 12 5 2 0 0 0 0 0 0 0 0 0 1 10 0 0
12 56 228 412 414 401 419 492 660 707 690 758 690 668 534 375 250 111 85 73 69 74 62 58 23 5 21 18 9 5 0 0 0 0 0 0 0 0 0 0 0 0 0
92 212 298 383 487 596 663 716 862 843 733 698 434 358 426 206 60 58 41 28 36 24 18 10 19 13 13 13 3 0 0 0 0 0 0 0 0 0 0 0 0 0 0
116 324 456 539 604 642 825 942 981 951 798 577 397 264 84 69 48 10 29 24 26 15 0 2 8 4 3 0 0 0 0 0 0 0 0 0 0 0 0 0 0 0 0
43 275 475 577 726 833 807 887 913 745 645 490 190 76 55 43 28 40 32 35 14 18 4 10 8 4 0 0 0 0 0 0 0 0 0 0 0 0 0 0 0 0 0
32 114 304 501 642 726 762 665 612 560 435 135 75 59 54 35 31 40 31 35 13 20 9 1 4 0 0 0 0 0 0 0 0 0 0 0 0 0 0 0 0 0 0
37 129 232 314 304 212 215 316 356 284 185 129 71 71 59 37 43 53 53 44 12 0 22 0 0 0 0 0 0 0 0 0 0 0 0 0 0 0 0 0 0 0 0
0 0 0 0 0 0 0 0 0 0 0 4 37 58 65 51 61 61 38 10 3 23 6 18 0 0 0 0 0 0 0 0 0 0 1 0 0 0 0 0 0 0 0
0 0 0 0 0 0 0 0 0 0 0 3 28 58 68 90 100 87 38 34 25 0 0 0 0 0 0 0 0 0 0 0 0 0 2 2 0 0 0 0 0 0 0
0 0 0 0 0 0 0 0 0 0 1 30 49 51 64 66 65 35 45 21 0 0 0 0 0 0 0 0 0 0 0 0 0 3 6 5 0 0 0 0 0 0 0
0 0 0 0 0 0 0 0 0 0 0 4 25 37 20 32 4 9 6 0 0 0 0 0 0 0 0 0 0 0 0 0 0 0 0 4 0 4 0 0 0 0 0
0 0 0 0 0 0 0 0 0 0 0 0 3 2 2 5 0 0 0 0 0 0 0 0 0 0 0 0 0 0 0 0 0 0 0 6 4 5 0 0 0 0 0
0 0 0 0 0 0 0 0 0 0 2 3 0 0 0 0 0 0 0 0 0 0 0 0 0 0 0 0 0 0 0 0 0 0 0 0 6 1 1 0 0 0 0
0 0 0 0 0 0 0 0 6 8 7 1 0 0 0 0 0 0 0 0 0 0 0 0 0 0 0 0 0 0 0 0 0 0 0 0 0 0 3 0 0 0 0
0 0 0 0 1 0 7 15 9 2 0 0 0 0 0 0 0 0 0 0 0 0 0 0 0 0 0 0 0 0 0 0 0 0 0 0 1 0 0 0 2 0 0
0 0 0 0 0 7 9 5 0 0 0 0 0 0 0 0 0 0 0 0 0 0 0 0 0 0 0 0 1 5 4 0 0 0 0 0 0 4 0 0 0 0 0
0 0 0 0 0 0 0 0 0 0 0 0 0 0 0 0 0 0 0 0 0 0 0 0 0 0 0 0 0 5 1 3 0 0 0 0 0 1 2 0 0 0 0

GFSMW_con_mucape_039.txt.gz
CAPE
342 107 121 122 104 139 233 281 332 313 300 295 44 77 233 179 308 334 272 130 90 24 4 10 14 11 0 0 0 0 0 0 0 0 0 0 0 0 0 0 0 0 0
361 256 169 153 167 139 254 440 393 296 322 303 75 83 103 174 389 297 183 99 1 0 5 7 7 1 0 0 0 0 0 0 0 0 0 0 0 0 0 0 0 0 0
522 268 201 209 206 202 248 396 416 322 328 348 173 69 124 215 307 222 110 27 3 1 2 2 0 0 0 0 0 0 0 0 0 0 0 0 0 0 0 0 0 0 0
396 524 294 275 265 233 278 345 374 476 439 440 433 190 121 217 215 152 91 28 8 8 3 10 0 0 0 0 0 0 0 0 0 0 2 0 0 0 0 0 0 0 0
429 521 596 512 445 418 497 462 413 425 585 624 607 552 343 201 146 100 83 42 28 41 33 31 0 0 0 0 1 1 3 0 0 0 0 0 0 0 0 0 0 0 0
465 470 533 687 664 626 601 566 493 364 595 623 429 433 311 201 165 173 118 76 65 48 57 31 3 8 21 18 19 16 2 1 0 0 0 0 0 0 0 0 0 0 0
461 490 468 450 743 686 627 585 507 437 539 533 438 371 288 256 238 253 233 142 78 55 57 42 31 30 30 36 9 10 6 0 0 0 0 0 0 0 0 0 0 0 0
162 419 494 498 598 710 662 706 714 580 542 308 404 459 408 336 260 277 263 181 61 48 37 40 40 47 64 59 3 3 2 0 0 0 0 0 0 0 0 0 0 0 0
3 25 108 510 541 528 543 617 706 728 592 300 130 196 303 325 142 185 194 301 54 54 42 50 63 64 71 29 9 4 0 0 0 0 0 0 0 0 0 0 3 0 0
0 11 78 151 255 449 476 468 517 668 683 361 272 297 290 350 356 274 265 83 70 35 67 43 49 81 51 4 0 0 0 2 0 0 0 0 0 0 0 5 31 44 0
1 6 41 248 270 294 362 408 499 568 472 532 549 530 531 446 367 296 297 135 87 68 52 38 44 24 1 0 0 0 0 0 0 0 0 0 0 0 2 21 40 42 33
0 32 183 381 488 485 411 353 345 372 362 414 498 600 604 388 352 313 165 110 78 60 75 63 28 1 3 0 0 0 0 0 0 0 0 0 0 0 4 16 26 19 22
3 82 161 240 294 402 474 531 535 596 584 573 565 528 448 314 185 198 84 42 51 46 25 23 22 7 3 0 0 0 0 0 0 0 0 0 0 0 8 6 1 2 0
0 57 203 341 450 545 659 698 735 759 577 482 379 283 186 119 66 44 34 49 35 23 22 7 11 1 4 6 0 0 0 0 0 0 0 0 0 0 6 0 0 0 0
0 11 103 276 446 621 723 744 738 650 523 402 319 257 99 56 55 55 50 51 50 27 12 4 1 0 0 0 0 0 0 0 0 0 0 0 0 0 1 0 0 0 0
0 56 188 290 340 286 249 202 146 121 54 16 38 72 73 60 49 69 43 51 40 1 4 11 0 0 0 0 0 0 0 0 0 0 0 0 0 0 0 0 0 0 0
0 0 0 0 0 0 0 0 0 0 0 0 0 0 2 15 68 42 31 33 11 5 8 0 0 0 0 0 0 0 0 0 0 0 0 0 1 3 0 0 0 0 0
0 0 0 0 0 0 0 0 0 0 0 0 0 0 0 0 10 20 13 50 9 0 0 0 0 0 0 0 0 0 0 0 0 0 0 0 1 6 4 4 0 0 0
0 0 0 0 0 0 0 0 0 0 0 0 0 0 0 0 0 0 0 0 0 0 0 0 0 0 0 0 0 0 0 0 0 0 0 0 0 1 8 3 0 0 0
0 0 0 0 0 0 0 0 0 0 0 0 0 0 0 0 0 0 0 0 0 0 0 0 0 0 0 0 0 0 0 0 0 0 0 0 0 1 9 5 0 0 0
0 0 0 0 0 0 0 0 0 0 0 0 0 0 0 0 0 0 0 0 0 0 0 0 0 0 0 0 0 0 0 0 0 0 0 0 0 0 2 9 3 0 0
0 0 0 0 0 0 0 0 0 0 0 0 0 0 0 0 0 0 0 0 0 0 0 0 0 0 0 0 0 0 0 0 0 0 0 0 0 0 1 2 1 0 3
0 0 0 0 0 0 0 0 0 0 0 0 0 0 0 0 0 0 0 0 0 0 0 0 0 0 0 0 0 0 0 0 1 0 0 0 0 0 0 0 0 0 0
0 0 0 0 0 0 0 0 2 6 0 0 0 0 0 0 0 0 0 0 0 0 0 0 0 0 0 0 0 0 0 0 8 11 1 0 0 0 0 0 0 0 0
0 0 0 0 0 0 0 0 3 0 0 0 0 0 0 0 0 0 0 0 0 0 0 0 0 0 0 0 0 0 0 0 27 3 14 0 0 2 0 0 0 0 0
0 0 0 0 0 0 0 0 0 0 0 0 0 0 0 0 0 0 0 0 0 0 0 0 0 0 0 0 0 0 0 0 0 18 3 8 2 0 0 0 0 0 0

GFSMW_con_mucape_042.txt.gz
CAPE
219 419 684 680 470 400 291 280 400 509 602 743 466 117 57 203 677 745 834 411 325 79 54 48 4 0 0 0 0 0 0 0 0 0 0 0 0 0 0 0 0 0 0
406 243 505 515 534 533 553 492 398 498 754 814 694 174 310 196 416 629 731 573 394 54 5 0 0 0 0 10 0 0 0 0 0 0 0 0 0 0 0 0 0 0 0
565 485 278 436 565 466 487 521 573 806 810 768 672 283 473 634 704 588 342 327 134 109 6 6 4 3 0 0 0 0 0 0 0 0 1 0 0 0 0 0 0 0 0
702 649 523 401 409 528 521 498 656 937 909 912 768 476 342 358 507 480 139 59 100 44 20 27 22 24 0 0 0 0 0 11 14 6 0 0 0 0 0 0 0 0 0
607 748 806 646 536 517 585 611 667 1100 986 945 916 853 718 625 685 370 32 61 67 68 42 52 47 43 37 1 0 0 10 5 11 4 0 0 0 0 0 0 0 0 0
727 692 760 984 963 835 800 781 781 893 1096 1095 1025 1110 1200 1111 481 128 96 107 91 61 83 89 56 43 12 5 2 1 19 11 6 0 0 0 0 0 0 0 0 0 0
851 930 907 1056 1261 1309 1264 1202 996 763 901 868 431 700 834 977 267 131 89 150 147 133 70 99 79 48 17 18 31 48 36 2 4 1 0 0 0 0 0 0 0 0 0
552 830 1006 1063 1202 1438 1635 1520 1234 994 925 626 189 319 359 294 166 286 124 211 286 239 237 300 107 102 47 46 49 49 13 6 2 0 0 0 0 0 0 0 0 0 0
85 300 664 1030 1067 1297 1633 1780 1562 1224 1200 758 195 264 289 137 190 195 226 228 217 231 391 161 80 55 60 50 44 10 2 1 0 0 0 0 0 0 0 0 0 0 0
89 146 230 377 618 930 1372 1618 1701 1537 1474 1003 532 223 365 196 281 247 261 215 172 84 68 34 35 18 48 23 10 6 4 0 0 0 0 0 0 0 0 0 0 5 6
322 339 334 455 540 632 968 1215 1317 1318 1404 1312 1032 425 379 402 468 404 237 236 118 53 62 49 39 42 31 14 12 9 0 0 0 0 0 0 0 0 0 0 11 26 35
269 485 683 809 891 911 937 1009 1056 1120 1234 1338 1271 833 427 410 322 182 150 119 68 67 89 85 47 50 17 6 2 11 5 0 0 0 0 0 0 0 0 0 40 39 43
225 537 822 1010 1177 1229 1142 1093 1082 1101 974 756 483 335 354 291 210 112 84 80 59 64 111 111 58 40 15 5 5 2 2 0 0 0 0 0 0 0 17 41 51 44 30
1 568 828 945 1003 1031 1024 1018 809 655 605 564 540 485 370 260 180 52 52 53 39 36 58 39 43 16 9 4 1 0 0 0 0 0 0 0 0 35 42 38 50 44 41
73 445 743 853 821 757 667 748 764 768 667 595 517 379 268 212 90 67 51 29 19 35 39 20 8 1 9 8 0 0 0 0 0 0 0 6 6 1 7 13 28 42 41
1 111 319 410 444 584 650 660 590 553 467 292 115 17 21 25 12 1 15 17 31 46 6 0 0 6 13 0 0 0 0 0 0 0 8 9 0 0 0 0 0 0 19
0 16 58 69 59 69 74 26 5 0 0 0 0 0 0 0 0 2 4 6 3 0 0 0 1 0 0 0 0 0 0 0 0 3 2 1 2 5 12 7 2 1 0
0 0 0 0 0 0 0 0 0 0 0 0 0 0 0 0 0 0 0 0 0 0 3 0 0 0 0 0 4 0 0 0 0 0 0 1 4 14 21 11 32 14 11
0 0 0 0 0 0 0 0 0 0 0 0 0 0 0 0 0 0 0 0 0 0 0 0 0 0 0 0 0 0 0 0 0 0 0 0 0 1 0 1 29 21 21
0 0 0 0 0 0 0 0 0 0 0 0 0 0 0 0 0 0 0 0 0 0 0 0 0 0 0 0 0 0 0 0 0 0 0 0 0 0 0 0 3 36 26
0 0 0 0 0 0 0 0 0 0 0 0 0 0 0 0 0 0 0 0 0 0 0 0 0 0 0 0 0 0 0 0 0 0 3 27 3 0 0 0 5 22 38
0 0 0 0 0 0 0 0 0 0 0 0 0 0 0 0 0 0 0 0 0 0 0 0 0 0 0 0 0 0 0 0 0 0 61 58 14 0 0 0 0 0 7
0 0 0 0 0 0 0 0 0 0 0 0 0 0 0 0 0 0 0 0 0 0 0 0 0 0 0 0 0 0 0 0 0 0 5 0 5 8 3 0 0 0 0
0 0 0 0 0 0 0 0 0 0 0 0 0 0 0 0 0 0 0 0 0 0 0 0 0 0 0 0 0 0 0 0 0 0 10 0 8 2 4 7 3 0 2
0 0 0 0 0 0 0 0 0 0 0 0 0 0 0 0 0 0 0 0 0 0 0 0 0 0 0 0 0 0 0 0 0 0 0 0 54 67 42 18 2 0 10
0 0 0 0 0 0 0 0 0 0 0 0 0 0 0 0 0 0 0 0 0 0 0 0 0 0 0 0 0 0 0 0 0 0 0 63 74 96 115 96 1 0 0

GFSMW_con_mucape_045.txt.gz
CAPE
147 306 128 57 60 86 207 155 145 146 426 485 214 50 2 4 59 256 401 620 692 502 459 394 268 138 52 4 0 0 0 0 0 0 0 0 0 0 0 0 0 0 0
416 411 479 312 365 252 217 167 120 167 539 592 505 119 28 0 62 254 658 740 762 617 440 478 221 104 10 1 0 0 0 0 0 0 0 0 1 0 0 0 0 0 0
213 364 515 557 429 334 286 263 307 476 529 506 561 387 61 72 51 292 503 791 760 705 478 405 144 32 10 6 1 0 0 0 0 0 2 1 5 0 0 0 0 0 0
326 218 285 672 702 591 582 605 574 574 552 612 791 466 121 244 478 682 626 640 837 622 360 148 46 5 16 17 18 0 0 0 0 4 0 3 0 0 0 0 0 0 0
371 416 268 178 569 801 672 746 662 635 753 880 746 1042 485 398 545 718 771 825 587 399 156 38 25 36 37 32 24 1 0 2 0 7 0 0 0 0 0 0 0 0 0
370 460 526 392 277 387 943 1318 719 659 774 978 940 1061 1044 892 1059 1063 734 498 371 190 62 58 61 35 33 39 24 0 0 9 8 0 0 0 2 0 0 0 0 0 0
405 438 482 668 652 584 731 1115 756 597 920 1331 1126 1254 1337 1316 617 700 649 346 249 38 34 72 110 131 179 91 25 7 36 34 27 27 3 0 0 0 0 0 0 0 0
558 594 479 604 854 1025 1037 1083 943 994 857 1191 1007 1134 1346 1196 759 372 176 115 91 70 62 169 249 268 105 84 48 19 24 47 50 23 1 0 0 0 0 0 0 0 0
270 565 665 718 881 1209 1749 2070 1623 1253 1101 1382 830 825 1123 902 966 474 312 175 81 105 155 207 179 145 37 56 15 6 41 2 4 2 1 0 0 0 0 0 0 0 0
232 265 486 770 999 1221 1829 2646 2052 1777 1430 1161 1157 976 874 629 521 386 248 216 196 191 293 169 42 25 13 36 14 15 22 6 13 14 12 0 0 0 0 0 0 0 0
414 372 391 440 690 1049 1358 1798 2162 2155 1781 1651 1412 1158 688 612 508 318 261 254 145 111 183 64 33 19 30 32 35 27 15 11 3 7 1 0 0 0 0 0 0 0 0
167 460 662 783 877 923 1088 1544 1833 1925 1864 1677 1447 1333 786 733 472 727 383 251 56 26 20 25 46 46 23 30 58 22 29 0 1 0 0 0 0 0 0 0 0 0 43
144 446 869 1082 1143 1188 1269 1429 1518 1541 1528 1650 1577 1234 879 708 860 522 446 326 66 47 39 67 45 48 49 89 30 35 23 10 0 0 0 0 0 0 0 0 15 52 29
1 317 836 1068 1170 1345 1351 1442 1512 1540 1467 1376 1226 929 656 375 307 293 240 147 84 114 61 58 72 44 75 48 29 1 12 0 0 0 0 0 0 0 21 66 83 50 83
0 118 801 1054 1251 1340 1373 1373 969 745 636 618 539 368 359 335 262 224 158 100 55 52 76 47 28 5 21 0 0 0 0 0 0 0 0 0 0 8 7 13 57 86 76
213 494 853 1088 1126 1063 1019 622 435 537 392 388 406 301 233 130 88 53 25 0 1 0 2 12 8 8 10 2 0 0 0 0 0 0 0 5 1 2 0 0 0 0 21
160 387 611 707 707 519 449 542 478 395 226 114 45 3 0 0 0 0 0 0 0 1 2 3 3 0 1 0 0 0 0 0 2 2 5 1 0 2 6 9 9 1 0
3 1 6 40 144 245 271 120 34 6 0 0 0 0 0 0 0 0 0 0 0 0 0 0 0 0 0 0 0 0 0 0 0 0 1 5 5 8 10 27 56 62 48
0 0 0 0 0 0 0 0 0 0 0 0 0 0 0 0 0 0 0 0 0 0 0 0 0 0 0 0 0 0 0 0 0 0 0 0 9 2 0 0 35 57 55
0 0 0 0 0 0 0 0 0 0 0 0 0 0 0 0 0 0 0 0 0 0 0 0 0 0 0 0 0 0 0 0 0 0 0 2 6 3 5 32 19 37 47
0 0 0 0 0 0 0 0 0 0 0 0 0 0 0 0 0 0 0 0 0 0 0 0 0 0 0 0 0 0 0 0 0 0 0 8 0 7 12 12 31 48 44
0 0 0 0 0 0 0 0 0 0 0 0 0 0 0 0 0 0 0 0 0 0 0 0 0 0 0 0 0 0 0 0 0 0 0 0 0 0 0 0 5 27 16
0 0 0 0 0 0 0 0 0 0 0 0 0 0 0 0 0 0 0 0 0 0 0 0 0 0 0 0 0 0 0 0 0 0 0 0 0 0 0 0 4 10 3
0 0 0 0 0 0 0 0 0 0 0 0 0 0 0 0 0 0 0 0 0 0 0 0 0 0 0 0 0 0 0 0 0 0 0 0 0 0 0 3 15 0 16
0 0 0 0 0 0 0 0 0 0 0 0 0 0 0 0 0 0 0 0 0 0 0 0 0 0 0 0 0 0 0 0 0 0 0 0 36 65 54 47 49 57 31
0 0 0 0 0 0 0 0 0 0 0 0 0 0 0 0 0 0 0 0 0 0 0 0 0 0 0 0 0 0 0 0 0 0 0 0 0 0 0 17 18 52 19

GFSMW_con_mucape_051.txt.gz
CAPE
4 0 0 0 0 0 0 0 0 0 0 1 0 0 0 6 3 11 25 53 162 229 350 330 255 230 97 52 19 1 0 0 0 0 0 0 0 0 0 0 0 0 0
0 0 0 0 0 0 0 0 0 0 0 0 0 0 0 9 32 6 38 15 171 248 355 360 362 216 125 55 33 35 5 0 0 0 3 0 0 0 0 0 0 0 0
12 0 0 0 0 0 0 0 0 0 0 0 0 0 13 45 0 7 0 21 317 302 331 438 333 236 167 56 53 44 25 7 1 0 0 0 0 0 0 0 4 1 0
38 0 0 0 0 0 0 0 0 0 0 0 0 0 0 33 1 0 1 256 319 285 360 385 284 260 237 79 84 28 23 18 28 15 2 0 0 0 0 0 2 1 0
50 19 0 0 0 0 0 0 0 0 0 0 0 0 8 31 0 0 0 284 383 371 303 312 278 274 238 163 73 45 68 56 32 29 29 3 1 0 0 8 7 3 0
88 17 41 1 35 18 0 0 0 0 0 0 0 37 129 146 53 0 0 217 262 296 258 179 217 251 240 198 48 47 65 125 83 40 20 3 0 0 10 4 0 0 0
133 94 113 53 79 99 79 7 0 0 0 0 0 60 190 168 149 40 31 110 218 277 118 68 139 181 138 79 87 47 43 80 17 28 26 0 0 6 10 0 1 0 0
145 173 195 197 205 203 117 126 96 93 78 135 146 183 291 291 249 45 293 225 154 270 96 143 152 163 149 103 50 46 64 55 98 29 23 0 0 7 26 15 7 0 0
166 137 217 217 175 274 256 245 238 184 214 240 282 262 167 209 313 274 407 345 354 309 178 46 54 146 153 190 80 97 54 26 26 48 13 0 9 9 15 10 0 0 0
180 126 107 125 147 259 308 349 293 310 288 401 503 492 429 330 513 703 535 576 495 349 287 92 55 117 223 89 67 159 20 61 54 9 15 3 6 12 9 7 0 0 0
97 111 122 139 177 162 235 413 344 225 403 369 381 586 774 796 640 605 673 567 441 300 233 157 145 170 168 130 127 46 61 60 23 0 13 4 17 8 4 4 0 0 0
159 149 198 155 210 265 185 242 307 342 398 558 443 559 541 430 734 395 676 615 395 292 244 140 138 85 88 139 120 78 17 36 50 48 0 1 0 0 0 0 0 0 0
57 216 242 334 429 460 509 289 289 288 277 343 679 718 507 575 649 588 603 428 369 251 180 199 89 141 217 81 24 28 45 9 9 5 9 7 0 0 0 0 0 1 4
0 245 332 469 523 620 956 764 627 592 502 671 799 893 863 844 894 725 776 412 335 298 167 117 188 154 69 35 25 24 10 17 15 5 8 15 1 0 0 0 0 3 3
0 32 352 503 622 750 1027 1054 1066 1115 986 1088 1122 1080 1048 1017 753 822 869 469 294 240 132 158 174 50 4 25 12 22 18 16 2 5 8 1 0 0 0 0 4 8 8
0 0 0 597 855 1004 1029 1030 1059 1081 1112 1111 1064 1035 1079 1010 736 586 611 206 142 135 42 59 0 9 6 8 10 0 6 9 12 0 0 0 0 0 0 0 0 0 0
0 0 52 839 957 1021 1083 1058 925 904 979 1010 959 885 755 764 459 290 143 59 16 0 0 0 0 0 0 4 1 1 0 0 0 0 0 0 0 0 0 0 0 0 0
7 110 562 740 814 860 982 973 760 622 611 593 598 488 325 191 137 33 0 0 0 0 0 0 0 0 0 0 0 0 0 0 0 0 0 0 0 0 0 0 0 0 0
65 411 697 789 766 806 816 769 747 454 216 221 248 164 114 22 0 0 0 0 0 0 0 0 0 0 0 0 0 0 0 0 0 0 0 0 0 0 0 0 0 0 0
91 194 322 436 550 518 441 414 299 181 145 140 59 6 0 0 0 0 0 0 0 0 0 0 0 0 0 0 0 0 0 0 0 0 0 0 0 0 0 0 0 0 0
14 30 42 101 226 282 184 39 0 10 0 0 0 0 0 0 0 0 0 0 0 0 0 0 0 0 0 0 0 0 0 0 0 0 0 0 0 0 0 0 0 0 0
0 0 0 0 0 0 0 0 0 0 0 0 0 0 0 0 0 0 0 0 0 0 0 0 0 0 0 0 0 0 0 0 0 0 0 0 0 0 0 0 0 0 0
0 0 0 0 0 0 0 0 0 0 0 0 0 0 0 0 0 0 0 0 0 0 0 0 0 0 0 0 0 0 0 0 0 0 0 0 0 0 0 0 0 0 0
0 0 0 0 0 0 0 0 0 0 0 0 0 0 0 0 0 0 0 0 0 0 0 0 0 0 0 0 0 0 0 0 0 0 0 0 0 0 0 0 0 0 0
0 0 0 0 0 0 0 0 0 0 0 0 0 0 0 0 0 0 0 0 0 0 0 0 0 0 0 0 0 0 0 0 0 0 0 0 0 0 0 0 0 0 0
0 0 0 0 0 0 0 0 0 0 0 0 0 0 0 0 0 0 0 0 0 0 0 0 0 0 0 0 0 0 0 0 0 0 0 0 0 0 0 0 0 0 0

GFSMW_con_mucape_054.txt.gz
CAPE
0 0 0 0 0 0 2 4 0 3 0 1 3 4 3 10 0 24 24 6 32 55 106 186 212 131 77 77 56 16 0 0 0 0 0 0 0 0 0 0 0 0 0
0 0 0 0 0 0 0 1 1 3 4 13 1 0 8 2 0 0 0 0 0 36 61 95 211 150 117 88 55 29 17 1 2 1 1 0 0 0 0 0 0 0 0
0 0 0 0 0 0 0 0 0 0 0 0 0 0 1 0 0 0 0 0 0 0 48 144 215 214 125 175 70 61 20 37 21 21 34 23 3 3 0 0 0 0 0
0 0 0 0 0 0 0 0 0 0 0 0 0 0 0 0 0 0 0 0 0 0 49 112 197 159 181 201 148 63 38 35 36 38 37 26 22 23 0 0 0 0 9
11 0 0 0 0 0 0 0 0 0 0 0 0 0 0 0 0 0 0 0 0 32 45 119 179 147 105 117 154 67 52 49 55 40 21 34 28 16 11 0 0 0 3
39 3 0 0 0 0 0 0 0 0 0 0 0 0 0 0 0 2 23 16 2 48 86 145 176 128 88 102 134 63 68 53 57 67 44 9 0 9 7 1 0 0 8
88 21 5 0 0 0 0 0 0 0 0 0 0 0 0 0 2 19 34 2 3 97 172 117 126 76 1 65 79 107 128 70 43 60 41 5 20 13 6 0 0 0 1
129 85 73 20 0 0 0 0 0 0 0 0 0 0 1 37 30 51 74 67 0 37 114 152 141 51 22 124 92 74 99 68 67 57 46 13 17 3 15 1 3 0 0
189 164 127 133 120 72 19 1 0 0 0 0 0 0 20 44 109 94 88 158 36 26 85 135 174 37 194 184 129 131 117 151 57 67 40 6 21 16 9 9 2 0 0
137 186 205 182 157 126 78 67 86 72 48 23 15 23 34 21 76 144 221 222 104 149 223 141 96 153 61 107 128 151 57 55 73 28 20 3 1 12 3 4 9 0 0
80 160 222 215 196 178 125 135 103 99 104 112 111 97 88 68 84 91 173 247 204 199 252 287 149 227 68 60 105 113 91 60 72 36 19 8 19 0 0 0 0 0 0
74 113 159 203 230 241 284 270 231 229 183 167 66 69 130 95 50 171 257 407 198 225 247 226 212 141 102 126 121 74 36 71 34 23 0 4 2 0 0 0 0 0 0
36 102 129 130 141 157 234 292 331 326 271 240 225 244 314 345 231 281 318 272 174 302 205 167 155 102 78 77 49 23 60 32 22 6 2 3 10 12 7 1 0 0 0
55 61 157 183 189 219 297 351 374 399 407 423 279 221 307 362 364 289 99 168 247 383 377 395 275 89 29 28 111 44 29 21 11 10 0 2 18 3 9 2 0 0 0
0 40 128 177 333 387 434 369 335 448 501 560 288 427 499 514 594 535 378 416 742 463 197 364 269 82 34 38 97 29 9 15 4 10 12 4 4 7 1 0 0 0 0
0 0 118 165 394 683 657 593 590 605 482 436 533 358 389 512 619 457 514 552 423 244 205 66 62 64 45 78 4 5 0 7 12 2 10 10 4 0 0 0 0 0 0
9 0 106 146 319 756 818 838 805 787 773 752 645 595 703 728 564 603 429 408 183 162 132 112 61 15 5 6 4 7 6 7 3 0 1 0 0 0 0 0 0 0 0
0 0 0 162 446 639 762 858 947 963 785 610 601 438 468 446 468 299 195 115 113 53 10 2 1 3 2 1 1 2 2 1 0 0 0 0 0 0 0 0 0 0 0
0 2 74 322 639 747 766 783 773 710 635 630 583 483 490 308 250 293 174 42 0 0 0 0 0 0 0 0 0 0 0 0 0 0 0 0 0 0 0 0 0 0 0
5 149 200 430 714 770 819 818 741 580 447 387 390 365 377 246 116 85 7 0 0 0 0 0 0 0 0 0 0 0 0 0 0 0 0 0 0 0 0 0 0 0 0
93 274 387 512 625 685 669 658 660 609 416 241 126 77 63 51 24 0 0 0 0 0 0 0 0 0 0 0 0 0 0 0 0 0 0 0 0 0 0 0 0 0 0
92 207 350 468 542 585 544 494 416 330 185 4 13 25 6 0 0 0 0 0 0 0 0 0 0 0 0 0 0 0 0 0 0 0 0 0 0 0 0 0 0 0 0
1 47 121 133 142 141 126 97 38 3 0 0 0 0 0 0 0 0 0 0 0 0 0 0 0 0 0 0 0 0 0 0 0 0 0 0 0 0 0 0 0 0 0
7 0 0 0 0 0 0 0 0 0 0 0 0 0 0 0 0 0 0 0 0 0 0 0 0 0 0 0 0 0 0 0 0 0 0 0 0 0 0 0 0 0 0
1 2 3 0 0 0 0 0 0 0 0 0 0 0 0 0 0 0 0 0 0 0 0 0 0 0 0 0 0 0 0 0 0 0 0 0 0 0 0 0 0 0 0
2 0 0 0 0 0 0 0 0 0 0 0 0 0 0 0 0 0 0 0 3 0 0 0 0 0 0 0 0 0 0 0 0 0 0 0 0 0 0 0 0 0 0

GFSMW_con_mucape_057.txt.gz
CAPE
0 0 0 0 2 4 3 0 8 6 6 35 30 2 74 82 41 63 72 114 142 140 186 177 159 195 164 153 112 89 51 12 5 0 0 0 0 0 0 0 0 0 0
0 0 0 0 0 0 5 2 0 4 4 23 11 5 5 20 6 27 15 50 64 71 78 119 180 160 103 91 83 69 56 30 26 13 12 1 0 0 1 0 2 0 0
0 0 0 0 0 0 0 0 2 1 5 3 2 4 1 8 14 9 0 14 4 5 0 37 29 134 146 93 76 59 48 58 58 31 33 25 4 0 1 2 7 1 0
0 0 0 0 0 0 0 0 0 0 0 0 6 0 1 0 5 6 3 9 3 0 0 1 25 81 151 151 125 101 89 70 57 39 29 32 19 17 0 2 1 12 0
36 0 0 0 0 0 0 0 0 0 0 0 0 0 0 0 0 0 0 0 0 0 0 7 41 53 121 146 148 103 103 86 61 40 40 50 36 59 9 0 0 2 8
105 23 2 0 0 0 0 0 0 0 0 0 0 0 0 0 0 0 0 0 0 0 0 9 29 20 49 151 113 93 89 54 55 58 81 62 54 11 21 0 20 10 6
112 68 47 0 0 0 0 0 0 0 0 0 0 0 0 0 0 0 0 0 0 7 23 15 53 57 57 106 58 42 96 73 70 61 56 48 43 18 25 5 5 0 1
42 99 77 44 0 0 0 0 0 0 0 0 0 0 0 0 0 0 0 0 0 4 28 12 33 66 155 138 51 1 87 76 85 83 58 26 25 4 24 1 14 0 0
67 58 106 95 35 35 1 0 0 0 0 0 0 0 0 0 0 0 3 3 23 33 51 112 33 57 142 107 56 24 90 94 100 85 86 11 21 41 24 0 18 16 4
93 79 104 139 99 47 22 0 0 0 0 0 0 0 0 0 0 0 32 23 30 26 58 140 99 46 105 138 58 85 122 131 158 67 39 49 21 10 4 5 4 13 6
53 97 102 135 175 134 125 63 16 11 0 0 0 0 0 0 0 0 0 19 84 99 144 130 107 48 69 106 142 128 87 101 111 28 65 30 38 3 7 5 8 2 0
27 79 91 87 140 173 189 167 112 92 74 18 0 0 3 19 14 15 9 28 29 73 105 142 149 0 110 114 79 56 69 82 90 36 17 21 28 1 3 3 0 18 4
10 48 104 90 114 131 154 170 169 154 143 114 48 50 34 33 65 50 59 35 48 55 63 245 155 172 139 144 240 70 107 182 35 18 44 28 7 0 0 2 1 0 0
22 53 76 97 95 102 103 140 181 193 185 200 191 186 142 95 97 46 46 69 159 146 55 214 171 183 175 251 208 137 57 72 22 29 24 18 10 2 0 0 0 1 0
0 7 39 79 86 88 108 128 157 210 212 216 229 291 216 211 131 154 272 363 380 310 300 380 286 342 376 234 109 95 29 42 13 25 19 7 0 1 0 0 0 2 0
0 0 13 49 86 130 133 108 116 113 127 150 179 205 261 303 348 205 304 502 463 453 170 139 469 316 103 141 53 4 10 9 23 2 8 2 12 5 5 1 3 0 0
0 0 3 47 132 155 176 163 175 149 126 157 177 239 294 383 409 366 500 442 373 379 193 279 318 191 147 127 46 24 5 8 5 7 5 8 9 0 1 1 0 0 0
0 0 0 12 68 186 252 285 257 203 152 159 245 281 334 404 354 246 126 209 250 210 258 302 152 138 77 61 19 4 5 2 5 7 8 6 4 0 0 0 0 0 0
0 0 0 4 49 169 386 502 468 398 408 445 487 513 467 374 386 303 240 214 236 355 175 123 60 45 21 4 7 1 6 4 3 4 4 0 0 0 0 0 0 0 0
0 0 0 39 132 183 415 624 705 697 707 718 688 573 399 384 310 358 427 208 58 25 58 22 2 4 5 3 1 2 2 0 0 0 0 0 0 0 0 0 0 0 0
0 0 24 75 124 206 431 675 789 848 925 889 606 371 251 220 222 193 160 80 70 39 0 0 0 0 0 0 0 0 0 0 0 0 0 0 0 0 0 0 0 0 0
8 36 56 108 208 365 508 652 700 741 729 557 553 405 238 214 231 143 90 47 0 0 0 0 0 0 0 0 0 0 0 0 0 0 0 0 0 0 0 0 0 0 0
32 85 120 133 189 306 446 516 573 675 587 429 253 112 5 14 44 28 0 0 0 0 0 0 0 0 0 0 0 0 0 0 0 0 0 0 0 0 0 0 0 0 0
38 103 177 229 329 513 610 564 458 297 149 34 1 0 0 0 0 0 0 0 0 0 0 0 0 0 0 0 0 0 0 0 0 0 0 0 0 0 0 0 0 0 0
7 56 105 193 222 215 197 145 79 21 0 0 0 0 0 0 0 0 0 0 0 0 0 0 0 0 0 0 0 0 0 0 0 0 0 0 0 0 0 0 0 0 0
14 25 23 45 41 21 6 0 0 0 0 0 0 0 0 0 0 0 0 0 0 0 0 1 1 0 0 0 0 0 0 0 0 0 0 0 0 0 0 0 0 0 0

GFSMW_con_mucape_060.txt.gz
CAPE
0 0 0 0 0 2 0 0 15 29 19 3 9 3 0 31 42 59 66 64 75 79 56 65 74 77 82 61 67 77 92 72 46 9 8 12 0 0 0 0 0 0 0
0 0 5 4 0 0 0 0 1 6 5 1 9 4 0 39 89 100 101 100 106 134 179 201 161 167 130 147 134 123 102 71 51 22 10 1 0 3 1 1 0 1 2
0 0 1 3 0 0 0 0 1 9 4 34 12 4 60 4 60 84 37 28 39 61 77 118 141 180 148 123 107 86 67 83 50 29 25 21 4 6 4 3 0 2 21
0 0 0 1 1 0 0 0 0 8 2 2 6 5 3 3 0 5 40 41 46 48 16 26 35 53 93 113 115 83 53 44 31 23 23 34 23 26 0 2 0 15 9
37 14 0 0 0 0 0 0 0 0 0 1 0 0 2 5 5 0 0 0 4 10 8 12 7 6 40 90 82 77 65 52 63 60 49 46 35 33 34 33 14 18 0
1 34 5 0 0 0 0 0 0 0 0 0 0 0 0 0 1 0 0 0 0 0 0 5 0 3 43 47 34 73 79 77 75 61 56 28 0 0 47 28 30 4 15
8 23 51 6 0 0 0 0 0 0 0 0 0 0 0 0 0 0 0 0 0 0 0 0 0 4 14 12 18 27 47 47 45 72 52 1 6 31 48 42 9 13 17
3 15 82 45 23 0 0 0 0 0 0 0 0 0 0 0 0 0 0 0 0 0 0 0 0 18 26 15 21 20 28 54 45 42 72 41 53 58 83 59 21 1 0
6 27 47 89 73 30 0 0 0 0 0 0 0 0 0 0 0 0 0 0 0 0 0 0 0 0 1 42 9 29 72 52 39 64 59 61 110 119 42 11 24 3 0
10 15 76 67 81 83 55 3 0 0 0 0 0 0 0 0 0 0 0 0 0 0 0 0 0 2 25 56 57 42 80 66 26 60 91 119 122 26 18 13 6 7 4
8 11 41 76 75 93 105 99 14 0 0 0 0 0 0 0 0 0 0 5 6 21 11 15 23 31 123 66 91 71 71 92 45 80 110 131 76 5 11 2 3 0 1
0 0 11 31 61 81 108 131 108 92 47 13 0 0 0 0 0 0 0 0 0 0 0 0 6 32 112 99 99 26 69 97 88 85 68 120 63 28 1 2 17 4 0
0 0 4 17 31 53 73 86 105 138 129 132 114 27 4 0 1 0 2 3 9 9 1 0 8 78 118 159 177 45 51 74 121 49 79 100 19 15 14 2 10 3 0
0 0 0 21 53 48 48 51 74 99 112 124 123 118 131 46 0 30 20 22 33 35 32 1 14 46 71 44 147 151 139 126 351 82 111 58 5 6 20 9 7 0 1
0 0 0 16 38 44 44 42 43 50 50 63 79 90 100 110 153 128 75 41 49 91 78 56 63 102 194 140 212 195 228 138 75 68 26 17 29 9 9 1 4 6 15
3 1 0 0 1 10 28 36 57 57 34 62 61 60 64 86 134 236 210 136 103 131 136 117 194 200 252 287 313 238 145 77 53 40 45 16 18 24 10 1 4 14 14
6 9 4 0 0 17 34 50 58 63 87 86 83 90 70 56 79 152 197 218 190 176 135 170 284 165 248 259 219 188 84 69 55 36 40 53 10 7 0 4 3 14 9
6 4 2 1 1 26 50 75 78 87 85 78 82 81 78 70 88 149 182 224 281 252 187 290 432 455 117 189 163 117 58 54 57 35 18 8 7 6 6 7 11 5 3
0 0 0 7 15 0 18 69 107 131 125 132 152 118 104 112 159 207 266 293 229 346 331 284 338 202 156 155 103 69 81 88 72 13 9 5 5 8 10 1 1 0 0
0 0 0 10 13 17 14 76 159 203 246 250 230 217 260 313 247 246 245 265 174 72 107 140 142 114 151 103 55 16 17 11 4 6 8 3 1 0 0 2 0 0 0
0 0 0 0 1 0 34 128 249 327 389 384 413 468 501 456 369 154 206 206 108 116 85 128 141 162 60 31 2 2 3 6 5 4 0 0 0 0 0 0 0 0 0
0 0 0 0 0 57 139 214 279 355 456 562 670 809 737 613 415 253 162 74 61 100 165 189 74 73 5 5 1 0 0 1 0 0 0 0 0 0 0 0 0 0 0
0 5 40 57 112 177 229 281 329 420 613 743 830 445 259 261 218 222 17 57 117 208 160 58 1 0 0 1 0 0 0 0 0 0 0 0 0 0 0 0 0 0 0
0 11 62 109 91 99 168 265 412 509 543 604 504 234 240 49 108 143 49 102 142 111 3 0 0 0 0 0 0 0 0 0 0 0 0 0 0 0 0 0 0 0 0
5 22 50 146 124 115 176 353 400 357 316 197 96 25 19 12 5 12 22 39 11 0 0 0 0 0 0 0 0 0 0 0 0 0 0 0 0 0 0 0 0 0 0
7 2 10 24 101 139 159 184 173 136 70 16 0 0 0 1 0 0 0 0 0 0 0 0 0 0 0 0 0 0 0 0 0 0 0 0 0 0 0 0 0 0 0

GFSMW_con_mucape_063.txt.gz
CAPE
0 0 1 0 0 17 4 2 36 19 2 0 12 4 1 65 106 75 28 79 51 63 121 128 94 90 115 86 57 56 83 82 83 53 18 0 4 6 0 0 0 1 0
0 0 2 0 0 0 0 0 10 10 7 10 4 11 0 5 57 73 46 72 65 86 124 155 178 134 148 114 75 66 77 67 93 79 35 0 0 0 4 6 7 11 3
0 0 0 0 0 0 0 0 0 1 3 16 12 5 5 77 56 72 60 86 107 148 182 189 200 206 256 231 175 83 86 110 52 59 31 0 0 0 2 1 7 16 8
0 0 0 0 0 0 0 0 0 0 4 18 3 0 9 7 5 45 57 56 99 138 118 110 121 175 225 180 141 58 103 111 83 50 35 25 0 0 2 0 2 9 30
5 0 0 0 1 0 0 0 0 3 0 9 8 6 0 0 8 0 53 82 72 53 61 55 95 130 184 208 215 112 121 121 94 64 28 28 19 9 1 6 0 4 8
0 8 0 0 0 1 10 0 0 0 1 0 5 12 12 8 3 7 0 46 47 42 64 50 76 114 120 140 190 187 131 98 91 74 47 50 41 25 19 0 8 8 13
1 0 12 0 0 0 7 0 0 0 0 3 4 2 3 3 5 7 3 9 23 22 34 44 51 57 79 115 170 175 128 96 45 53 34 42 27 45 16 10 42 17 20
6 0 6 41 0 0 0 0 0 0 0 0 0 0 0 0 0 1 1 0 14 25 10 26 34 32 48 91 137 131 124 61 20 32 5 43 44 43 37 29 35 30 8
6 9 22 35 20 1 0 0 0 0 0 0 0 0 0 0 0 0 0 0 0 0 0 4 5 5 21 58 108 135 132 50 18 28 60 44 22 46 54 47 44 33 3
0 5 18 32 52 18 20 0 0 0 0 0 0 0 0 0 0 0 0 0 0 0 0 0 0 0 0 21 43 49 23 62 64 19 61 46 34 59 52 51 41 6 11
0 0 10 25 44 48 49 66 26 0 0 0 0 0 0 0 0 0 0 0 0 0 0 0 0 0 0 1 2 2 75 60 63 63 41 54 44 64 76 66 9 0 11
0 0 0 5 42 63 67 93 96 99 30 0 0 0 0 0 0 0 0 0 0 0 0 3 0 0 0 0 10 22 35 36 52 15 24 86 63 72 80 17 36 8 3
1 0 0 1 8 30 50 60 78 99 117 137 85 25 1 0 0 0 0 0 0 0 0 0 0 0 6 3 0 13 22 65 70 51 18 78 84 45 29 50 47 16 5
3 11 0 10 21 5 12 25 42 53 83 115 127 130 136 129 71 0 4 0 5 2 3 1 0 0 2 11 8 10 71 58 33 47 74 141 81 47 82 56 40 10 2
0 0 2 4 22 29 20 32 33 38 49 56 81 104 94 91 95 100 100 40 0 11 14 20 24 40 24 9 11 10 63 14 74 110 110 78 22 46 38 16 19 23 8
0 0 0 0 0 4 27 28 38 40 16 39 39 40 43 48 58 57 67 77 90 24 37 31 37 64 65 96 73 81 67 237 206 260 87 28 75 32 47 26 9 14 3
0 0 0 7 0 0 15 60 45 46 53 41 30 29 22 17 20 17 15 40 90 184 144 104 70 81 138 81 188 190 132 241 99 138 57 45 34 52 35 29 13 9 6
0 0 0 0 0 7 7 16 23 41 57 60 50 60 60 55 51 53 49 30 70 174 187 172 83 116 110 178 240 127 184 237 151 57 68 65 30 52 48 24 4 3 8
0 0 15 21 6 5 12 3 0 28 55 69 85 108 118 100 77 64 65 89 128 194 188 211 464 400 236 108 80 150 71 169 100 52 66 79 87 42 57 4 5 1 3
0 0 0 0 0 3 6 11 1 0 28 78 107 132 145 165 161 159 229 219 223 335 195 280 175 226 86 84 87 62 141 131 118 92 5 45 26 3 2 3 0 0 0
0 0 0 0 0 0 0 5 6 4 5 90 156 204 235 248 256 331 323 275 153 122 106 144 72 86 168 186 112 85 160 126 58 4 26 10 5 3 6 3 1 3 0
0 0 0 0 0 0 0 0 0 30 123 220 292 334 360 393 402 317 246 278 242 243 178 149 87 99 56 82 81 92 94 22 9 6 4 2 5 4 3 2 0 0 0
0 0 1 11 9 0 18 92 147 188 245 291 374 463 504 453 210 106 84 195 30 72 28 9 45 68 109 104 55 5 0 0 0 0 3 3 0 0 0 0 0 0 0
0 0 4 42 46 39 58 102 220 286 341 381 342 229 239 183 173 55 43 59 148 42 35 75 100 89 73 0 1 0 0 0 0 0 0 0 0 0 0 0 0 0 0
13 10 3 36 92 52 35 139 179 156 185 211 191 143 56 15 12 10 4 7 8 14 30 49 16 0 0 0 0 0 0 0 0 0 0 0 0 0 0 0 0 0 0
0 0 9 10 39 32 42 86 61 61 27 28 70 2 0 0 0 0 2 8 2 4 2 0 0 0 0 0 0 0 0 0 0 0 0 0 0 0 0 0 0 0 0

GFSMW_con_mucape_069.txt.gz
CAPE
302 115 0 1 17 0 23 3 3 14 9 2 0 2 4 2 9 8 56 135 169 171 208 166 248 268 259 214 308 280 342 186 145 19 0 0 0 0 0 0 0 0 0
333 172 1 0 7 14 0 0 0 15 10 6 1 0 4 1 1 4 49 134 184 152 143 144 167 208 273 386 389 341 302 246 274 123 184 134 31 29 26 11 3 0 0
370 271 47 0 4 14 0 0 0 3 0 7 0 0 7 1 0 2 0 73 128 120 121 182 218 215 316 410 443 478 436 251 349 276 367 189 173 259 153 65 1 0 0
395 315 127 13 0 10 2 0 0 3 0 0 0 0 0 0 0 0 2 2 121 92 117 173 181 275 338 401 439 437 464 238 218 261 235 376 358 249 104 157 85 53 0
357 358 199 55 17 4 0 0 0 2 0 0 0 0 1 1 2 2 0 0 62 125 78 122 154 144 353 389 498 374 372 351 178 157 446 341 218 298 191 121 88 9 6
236 328 212 112 4 48 17 21 0 0 0 0 0 1 33 0 0 0 3 0 35 155 144 96 102 160 237 366 292 198 191 224 377 224 363 311 178 168 263 274 384 323 69
258 363 204 149 20 35 59 16 14 6 0 0 2 18 0 0 2 3 29 2 4 61 140 81 39 27 64 125 224 117 188 239 364 375 302 242 359 364 406 315 338 126 1
303 403 234 163 54 23 48 51 13 7 2 0 0 13 0 0 0 13 60 6 3 8 61 66 38 102 97 162 167 244 132 286 199 347 312 441 398 449 520 396 43 2 7
188 405 336 206 122 41 39 54 19 20 15 24 4 0 24 17 4 33 33 61 35 0 3 26 87 129 150 157 153 162 201 111 142 450 448 450 524 712 484 145 15 2 11
124 329 446 350 200 71 28 52 38 23 14 16 29 18 17 27 11 31 38 38 16 15 20 30 51 45 28 63 89 86 201 208 272 371 459 483 518 515 359 68 72 46 13
128 296 412 487 350 184 71 47 33 33 42 38 25 21 33 28 44 56 86 48 90 40 35 16 45 45 54 80 113 107 132 186 219 280 353 377 391 318 140 100 62 21 13
178 264 421 476 511 377 155 77 62 34 25 50 47 152 166 114 186 107 157 129 121 158 52 118 88 86 69 103 103 128 95 138 202 259 294 230 80 120 76 32 26 18 4
3 85 332 453 529 519 383 151 97 61 36 42 64 147 265 301 366 353 327 274 213 190 121 87 69 79 102 129 155 151 137 153 141 174 264 161 33 9 3 4 46 0 33
14 30 94 326 471 509 559 386 208 136 67 40 55 145 268 264 352 341 330 306 280 218 163 89 63 85 66 82 93 91 114 131 114 111 148 31 3 1 17 12 6 1 19
1 5 19 93 255 465 526 525 412 273 177 114 79 162 325 243 189 257 256 220 217 192 178 176 166 155 122 46 78 99 87 43 27 67 17 0 0 0 11 42 21 58 57
18 2 0 10 26 146 425 506 585 700 353 318 292 211 233 201 231 295 291 238 206 201 199 166 188 193 60 0 0 0 223 34 79 53 0 5 6 4 20 37 55 27 47
0 0 0 0 9 47 62 380 501 469 681 585 328 335 327 269 298 267 240 236 264 277 237 205 181 179 208 57 65 18 1 54 9 6 16 42 31 67 73 77 78 45 26
0 5 9 0 0 7 1 6 158 482 498 466 534 481 486 417 351 278 251 286 293 275 269 299 252 236 175 41 59 94 105 62 31 28 38 49 58 163 104 97 81 10 89
0 0 3 17 30 52 68 0 0 71 344 586 623 471 630 526 431 367 352 361 361 323 287 249 211 151 198 57 83 120 96 167 148 103 141 167 205 129 137 89 117 53 2
0 0 1 0 0 0 31 72 30 0 3 263 568 542 657 583 573 636 569 492 387 310 215 71 83 89 107 154 156 169 172 226 211 187 277 290 198 195 193 176 140 76 84
0 0 0 0 0 0 0 36 31 10 19 52 91 292 456 662 637 575 652 640 245 162 145 124 113 142 98 143 134 156 152 130 185 124 60 109 160 136 138 118 44 32 39
0 0 0 0 0 0 0 0 0 0 0 0 38 73 183 246 264 305 306 303 278 207 125 112 105 134 183 216 134 116 113 79 86 84 104 110 151 127 87 25 0 0 0
0 0 0 0 0 0 0 0 1 0 7 9 0 1 76 197 228 238 255 509 219 105 99 130 87 86 49 93 53 48 54 87 85 99 32 18 37 73 44 1 0 0 0
0 0 0 0 0 0 0 0 14 41 87 81 141 181 202 127 58 57 66 63 154 168 139 56 8 11 13 4 0 1 12 11 11 8 3 0 0 0 0 0 0 0 0
0 0 0 0 0 0 0 0 15 115 110 206 149 207 320 262 254 292 239 158 90 40 40 24 10 8 16 7 6 34 20 14 4 7 0 0 0 0 0 0 0 0 0
0 0 0 3 5 0 0 0 0 41 118 90 62 95 137 216 159 97 120 143 105 28 10 1 1 2 7 10 8 23 1 0 0 0 0 0 0 0 0 0 0 0 0

GFSMW_con_mucape_072.txt.gz
CAPE
326 209 55 24 0 16 5 4 0 0 1 0 0 5 0 0 0 9 25 18 11 76 128 132 195 161 130 121 195 178 167 131 100 11 0 0 0 0 0 0 0 0 0
313 181 60 7 0 4 6 0 0 0 3 0 0 0 1 0 0 9 7 7 22 67 78 88 132 164 163 157 173 157 143 118 91 32 14 7 1 0 0 0 0 0 0
301 188 74 0 0 4 5 0 4 0 1 2 0 4 9 3 0 0 1 1 24 33 58 71 102 143 156 169 182 160 144 125 123 117 59 49 33 24 12 1 0 0 0
355 246 94 22 0 4 4 6 5 0 0 0 0 0 0 0 0 3 2 5 42 56 72 83 96 92 126 218 197 201 174 153 73 136 119 171 201 57 54 43 18 2 0
375 242 122 45 0 0 3 2 0 0 0 4 6 0 0 0 0 0 5 4 0 25 56 81 135 127 130 191 188 175 152 115 62 79 43 77 98 123 46 53 6 11 0
309 266 176 41 11 6 2 4 4 1 1 1 0 0 0 0 0 0 0 4 5 43 23 47 112 128 179 183 107 106 79 94 33 36 88 70 44 76 65 82 74 35 2
147 233 162 36 13 12 3 13 3 0 3 0 12 4 0 0 0 0 2 9 7 3 31 18 59 45 70 174 171 107 61 57 24 5 21 41 96 93 54 43 16 43 58
151 251 176 59 10 57 14 4 10 8 14 5 5 8 0 0 0 0 0 10 9 5 4 8 13 24 34 32 25 30 54 48 33 21 27 15 44 70 52 34 60 38 16
91 279 228 91 30 37 64 26 13 4 7 2 4 0 0 0 0 0 0 9 8 10 9 3 24 2 0 3 2 14 21 28 27 35 43 45 57 82 103 114 82 47 8
18 268 297 170 71 33 46 82 20 1 0 3 2 2 4 12 0 0 0 22 0 1 0 13 28 11 11 8 7 9 11 20 29 28 36 27 37 79 105 108 139 96 20
72 265 317 290 161 52 35 38 47 19 23 2 0 1 0 8 14 0 0 0 20 0 0 0 0 5 8 2 14 15 16 20 18 29 26 59 98 88 116 113 116 103 28
136 325 288 423 231 157 36 29 30 21 35 28 4 0 7 3 8 5 2 0 0 0 0 0 0 0 0 5 4 8 7 8 2 2 32 28 38 70 116 130 127 105 66
51 222 401 442 441 320 142 42 48 37 44 57 51 37 6 3 6 0 0 2 1 0 0 0 0 0 0 0 0 0 0 0 0 0 5 9 22 41 59 109 101 56 63
14 48 217 364 530 589 507 243 126 71 40 46 77 62 76 39 35 15 6 1 10 4 0 0 0 0 0 0 0 0 0 0 0 0 11 17 20 17 42 54 52 42 19
1 29 27 118 309 577 723 581 352 220 100 47 40 85 109 112 91 69 83 59 20 22 0 1 0 0 0 0 0 0 0 1 3 6 6 3 1 8 18 24 23 7 18
5 0 0 0 0 193 459 584 646 430 282 191 83 57 81 132 125 125 138 122 92 62 48 30 14 11 0 0 0 0 0 0 0 0 0 1 3 3 25 38 15 0 0
0 6 22 18 1 0 8 57 506 640 493 373 286 194 118 99 138 138 122 115 108 100 94 80 73 53 34 30 21 16 0 11 10 6 9 11 4 3 8 38 40 35 15
0 0 10 13 54 56 57 56 64 79 611 566 442 338 234 170 138 123 120 128 128 117 92 96 88 85 80 90 107 87 47 22 12 26 32 41 31 42 42 16 19 57 68
0 0 1 0 0 4 7 13 79 62 31 269 518 499 370 284 204 156 154 154 131 148 139 119 118 101 103 101 117 112 97 75 37 43 54 72 12 41 102 170 95 97 111
1 0 0 0 0 0 0 31 62 42 3 2 64 212 476 392 327 272 231 190 167 147 146 144 191 169 137 115 122 110 75 102 26 7 29 136 92 112 99 128 99 135 144
5 0 0 0 0 0 0 0 0 0 1 0 0 24 164 476 418 360 349 285 251 183 167 145 195 263 220 210 155 80 47 19 8 31 52 76 113 100 100 97 71 92 115
0 0 0 0 0 0 0 0 0 0 2 2 0 0 5 104 249 316 422 310 308 298 250 198 142 122 166 201 94 69 77 80 61 69 82 94 161 70 88 96 91 88 41
0 0 0 0 0 0 0 0 0 1 0 0 14 35 8 5 83 179 231 390 597 469 483 360 406 223 263 167 119 65 139 91 74 7 91 69 44 34 36 55 29 51 22
0 0 0 0 0 0 0 0 0 0 0 1 6 7 61 85 67 40 215 244 438 326 364 434 338 317 134 73 67 39 51 15 9 25 10 9 0 0 14 8 11 0 0
0 0 0 0 0 0 0 0 0 0 0 0 1 46 17 62 100 138 116 113 105 176 198 156 162 87 44 9 1 1 0 3 1 1 1 1 0 2 0 0 0 0 0
0 0 0 0 0 0 0 0 0 0 0 0 0 0 24 18 9 27 48 61 84 131 198 108 56 20 5 4 0 1 3 2 1 0 0 0 0 0 0 0 0 0 0

GFSMW_con_mucape_075.txt.gz
CAPE
66 119 181 193 109 0 62 4 0 0 0 0 0 19 16 12 23 37 3 1 1 6 4 5 58 72 89 77 66 36 0 0 0 0 0 0 0 0 0 0 0 0 0
62 120 146 138 95 0 4 2 0 0 0 0 0 16 21 26 4 9 3 7 13 4 8 8 17 49 56 67 46 46 56 14 2 0 0 0 0 0 0 0 0 0 0
91 107 112 106 45 0 3 6 0 0 0 0 0 0 1 12 17 0 9 6 13 9 9 6 1 18 30 38 41 64 54 50 21 0 3 0 0 0 0 0 0 0 0
150 131 101 86 24 0 4 7 4 0 0 0 0 0 0 0 0 0 6 31 24 11 14 15 43 29 0 0 71 72 63 46 15 26 49 53 37 43 31 4 0 0 0
148 128 89 68 2 0 1 2 0 6 0 0 0 0 1 0 1 5 19 27 22 13 18 10 8 47 69 85 123 120 104 74 69 46 18 42 57 49 7 0 0 15 2
125 119 80 54 10 0 1 0 4 1 0 2 0 0 0 0 0 0 6 15 22 12 6 12 22 30 71 103 109 157 131 131 65 47 53 32 28 26 30 13 2 14 16
128 135 60 46 19 0 1 0 2 0 0 3 7 1 0 1 1 0 0 1 13 9 3 0 25 35 39 77 114 142 149 117 60 30 36 43 31 39 46 29 13 42 42
134 104 54 39 28 0 0 1 4 1 0 4 3 8 0 0 0 0 0 0 12 18 20 14 41 59 63 76 108 107 93 63 44 50 31 10 28 26 21 35 33 35 28
113 138 88 87 38 1 0 0 0 2 1 2 2 5 4 0 0 0 0 3 5 14 10 13 13 43 62 56 74 80 82 67 56 43 34 26 16 15 12 15 37 28 0
120 152 132 123 74 7 0 0 0 0 1 3 6 3 2 7 0 0 0 0 1 9 18 31 7 22 16 37 59 65 59 64 46 32 22 19 6 2 21 19 34 44 17
119 156 155 133 128 59 2 0 0 0 0 0 5 2 2 16 2 0 0 0 0 0 1 13 14 7 7 17 19 11 20 24 14 9 5 6 6 1 11 15 19 19 29
125 187 195 158 159 141 56 8 0 0 0 0 0 0 5 4 0 1 0 0 0 0 0 0 0 0 0 0 2 2 5 9 5 2 9 2 2 5 2 7 10 15 5
104 218 257 234 197 184 188 147 17 0 0 0 0 0 0 0 2 9 3 1 0 0 0 0 0 0 0 0 0 0 0 0 0 0 0 0 2 0 0 0 3 14 36
12 271 293 299 244 217 229 252 240 149 21 0 4 2 0 0 0 3 16 28 0 0 0 0 0 0 0 0 0 0 0 0 0 0 0 0 0 0 0 0 0 27 56
0 1 10 43 189 257 284 348 327 308 258 156 25 34 33 18 5 4 6 1 1 0 0 0 0 0 0 0 0 0 0 0 0 0 0 0 0 0 1 0 0 12 51
0 0 1 0 0 32 220 333 369 335 296 298 229 160 92 55 59 38 17 8 12 16 3 6 1 0 0 0 0 0 0 0 0 0 0 0 0 0 0 0 11 24 38
0 0 1 3 0 2 30 44 75 258 372 351 320 245 176 159 136 92 64 58 40 18 14 19 23 17 24 35 32 34 6 4 6 8 4 1 0 0 3 17 33 44 54
0 0 0 0 2 0 0 0 0 26 81 285 292 184 159 257 227 197 151 110 103 101 103 102 84 54 49 30 41 61 51 48 35 34 20 9 5 14 21 58 38 85 46
0 0 0 0 0 0 0 2 4 1 0 42 216 298 255 282 198 154 208 209 149 126 128 139 135 121 144 117 137 138 135 155 92 94 62 78 147 167 71 50 23 63 49
0 0 0 0 0 0 0 0 0 0 0 0 0 78 338 159 257 226 195 163 135 127 118 105 117 136 141 142 159 164 146 205 215 145 118 77 82 50 76 18 14 21 23
0 0 0 0 0 0 0 0 0 0 0 0 0 0 0 15 95 228 296 261 231 234 213 150 145 187 195 131 140 144 171 128 180 88 84 84 75 54 74 52 66 46 29
0 0 0 0 0 0 0 0 0 0 0 0 0 0 0 1 0 13 147 250 278 332 290 285 248 203 253 187 185 124 115 129 110 92 61 57 21 115 33 36 0 0 30
0 0 0 0 0 0 0 0 0 0 0 0 0 0 0 0 0 17 0 16 108 246 218 289 285 297 273 252 221 178 121 30 80 121 22 41 48 4 15 7 0 0 1
0 0 0 0 0 0 0 0 0 0 0 0 0 0 0 0 0 0 0 34 59 97 143 236 231 136 213 142 123 22 25 107 114 72 4 7 0 0 0 0 0 0 0
0 0 0 0 0 0 0 0 0 0 0 0 0 0 0 0 0 0 0 4 9 31 90 116 92 92 119 91 43 2 0 1 0 0 2 0 0 0 0 0 0 0 0
0 0 0 0 0 0 0 0 0 0 0 0 0 0 0 0 0 0 0 0 0 11 4 4 4 0 0 0 0 0 0 0 0 0 0 0 0 0 0 0 0 0 0

GFSMW_con_mucape_078.txt.gz
CAPE
123 187 143 122 138 124 89 0 0 0 0 7 9 27 51 59 6 32 17 12 25 5 6 4 2 12 0 0 5 0 0 0 0 0 0 0 0 0 0 0 0 0 0
155 143 140 140 140 104 85 0 0 0 4 3 3 6 27 38 11 9 2 35 12 2 3 11 4 6 0 6 14 3 11 0 0 0 0 0 0 13 12 2 1 0 0
96 133 149 152 139 102 37 0 0 0 0 0 0 10 32 14 6 10 7 11 15 6 1 0 9 19 14 13 15 12 21 2 0 7 0 0 0 0 0 0 2 0 0
71 136 154 142 144 85 1 0 0 0 0 0 1 0 3 0 10 24 21 9 1 10 8 1 20 11 58 30 34 33 39 10 9 14 2 1 0 0 0 0 0 0 0
51 125 160 146 129 57 0 0 1 0 0 0 0 0 0 0 12 8 8 7 8 11 11 5 13 31 49 64 47 50 41 39 4 0 34 44 29 47 31 7 0 0 0
45 119 159 153 109 12 0 1 5 1 0 0 0 0 0 0 0 0 0 0 6 5 4 17 8 15 7 9 21 25 34 66 59 34 30 51 61 40 34 19 8 0 0
40 134 188 170 88 0 0 1 8 2 2 0 0 0 0 0 0 0 0 2 5 4 19 9 13 46 46 18 1 26 65 68 66 60 44 47 48 42 32 29 4 16 24
36 173 212 153 92 5 0 0 0 3 3 2 2 1 0 0 0 0 0 0 1 17 32 25 19 9 24 10 30 52 91 111 107 95 62 54 33 31 21 30 32 33 30
61 215 198 144 75 21 0 0 0 2 15 1 4 5 0 0 0 0 0 0 2 9 16 24 14 28 34 32 63 77 86 100 112 103 68 55 33 12 11 13 33 20 6
104 195 193 141 77 41 1 0 0 1 4 2 2 5 6 4 0 0 0 0 0 2 12 21 23 13 13 18 48 78 82 66 64 76 74 41 17 7 5 42 18 23 6
105 145 172 146 105 78 3 0 0 0 0 3 5 2 3 5 4 0 0 0 0 0 0 1 10 7 12 20 45 43 42 49 41 45 40 27 13 17 11 16 1 3 16
120 151 164 177 151 126 57 0 0 0 0 0 2 4 3 0 5 4 4 0 0 0 0 0 1 5 3 3 4 6 19 25 35 40 34 9 11 6 4 5 7 13 0
137 177 190 226 188 183 174 164 89 0 0 0 0 0 0 0 1 1 1 5 2 0 0 0 0 0 0 1 0 0 4 6 1 9 1 0 4 0 3 6 6 2 2
137 168 198 263 212 175 147 121 151 163 123 35 0 0 0 0 0 2 2 1 5 13 0 0 0 0 0 0 0 0 0 0 0 0 0 0 0 0 0 0 0 0 1
202 199 187 226 200 209 185 146 151 187 180 197 179 134 39 0 0 0 0 0 2 8 44 21 0 0 0 0 0 0 0 0 0 0 0 0 0 0 0 0 0 0 0
36 26 31 58 102 188 205 112 139 130 165 192 217 177 99 92 75 53 22 0 5 7 0 15 6 0 0 0 0 0 0 0 0 0 0 0 0 0 0 0 0 0 0
1 0 5 1 2 7 11 13 29 51 121 164 91 84 102 124 123 108 103 95 89 54 16 5 9 19 28 11 1 0 1 2 4 1 0 0 0 0 0 0 0 0 0
0 0 0 1 3 0 0 0 0 3 5 49 121 117 108 94 125 131 121 106 100 79 83 94 87 52 46 35 38 24 12 20 25 23 25 30 16 15 19 26 32 42 38
0 0 0 0 0 0 0 0 0 0 0 0 34 92 101 144 156 133 111 99 71 88 110 104 89 82 131 88 99 96 86 86 139 158 173 62 63 67 80 133 46 57 31
0 0 0 0 0 0 0 0 0 0 0 0 0 0 0 28 118 135 137 167 119 130 126 99 119 109 136 135 146 152 192 111 128 112 101 91 74 74 80 86 77 55 50
0 0 0 0 0 0 0 0 0 0 0 0 0 0 0 0 0 0 6 53 132 209 176 152 130 145 169 161 174 201 227 178 204 195 120 102 108 84 63 84 111 103 85
0 0 0 0 0 0 0 0 0 0 0 0 0 0 0 0 0 0 0 0 0 26 153 190 220 188 165 164 200 153 166 192 222 188 152 58 42 23 35 80 67 51 52
0 0 0 0 0 0 0 0 0 0 0 0 0 0 0 0 0 0 0 0 0 0 2 24 82 155 233 241 255 200 186 144 241 46 86 77 25 63 4 37 18 129 10
0 0 0 0 0 0 0 0 0 0 0 0 0 0 0 0 0 0 0 0 0 0 0 0 13 44 89 78 51 4 1 7 3 1 0 6 1 3 0 0 0 0 0
0 0 0 0 0 0 0 0 0 0 0 0 0 0 0 0 0 0 0 0 0 0 0 0 0 0 0 0 0 1 1 2 0 0 0 0 0 0 0 0 0 0 0
0 0 0 0 0 0 0 0 0 0 0 0 0 0 0 0 0 0 0 0 0 0 0 0 0 0 0 0 0 0 0 0 0 0 0 0 0 0 0 0 0 0 0

GFSMW_con_mucape_081.txt.gz
CAPE
0 9 160 140 121 130 141 93 32 1 4 1 7 5 45 33 15 22 34 40 68 62 0 0 8 1 0 0 0 2 0 0 0 3 10 4 0 0 0 0 0 0 0
0 6 123 160 147 150 141 102 31 1 2 3 3 5 29 37 37 36 32 62 47 7 4 0 9 7 0 0 0 0 1 2 0 5 24 6 6 3 0 0 0 1 0
0 33 102 175 170 132 154 113 0 0 0 0 0 2 12 2 2 8 45 63 25 12 5 0 4 7 2 1 0 0 0 0 0 2 18 3 1 14 19 11 2 14 13
0 45 128 171 163 127 155 108 0 0 0 0 0 4 0 0 19 31 53 24 10 8 7 8 10 16 14 0 4 12 3 5 5 3 10 1 0 5 0 0 0 24 13
0 38 130 160 152 141 169 84 0 0 0 0 3 0 5 0 25 5 20 26 12 45 9 8 2 2 8 19 37 46 46 45 18 3 0 0 2 6 0 0 0 5 0
0 29 106 117 144 141 164 15 0 0 0 0 0 0 0 0 0 8 4 39 21 11 6 12 6 2 22 11 45 66 61 48 35 43 1 9 21 25 17 13 19 33 20
0 14 63 86 134 154 143 0 0 0 0 0 0 0 0 0 0 1 3 8 15 16 25 11 9 5 4 70 64 60 73 78 43 30 15 14 30 29 30 22 44 36 32
0 9 39 77 138 157 131 0 0 0 1 0 3 0 0 0 0 0 1 2 4 5 8 18 23 15 4 22 68 52 50 54 36 46 32 45 49 39 46 40 39 23 2
10 8 32 77 127 172 118 0 0 0 1 3 3 2 0 0 0 0 0 0 0 1 29 24 27 7 0 20 46 34 0 8 0 2 47 50 50 43 46 28 25 31 2
0 3 26 83 141 171 88 0 0 0 0 7 0 1 1 0 0 0 0 0 0 0 15 18 28 26 17 25 29 21 24 7 13 21 51 54 55 60 61 54 27 9 37
4 8 40 95 172 162 69 0 0 0 0 0 3 3 0 1 0 0 0 0 0 0 0 7 21 22 22 13 41 33 15 23 29 45 51 56 67 65 63 27 6 0 0
25 31 78 150 189 144 83 0 0 0 0 3 5 7 5 3 1 0 0 0 0 0 0 0 4 20 20 10 11 24 26 36 37 37 34 28 46 65 55 33 0 0 11
61 72 111 149 154 107 88 5 0 0 0 1 2 3 7 6 5 1 0 0 0 0 0 0 0 0 0 0 0 6 6 9 11 23 25 28 39 33 32 17 11 22 17
75 100 101 121 154 133 117 105 98 64 2 0 0 0 0 3 5 4 3 2 3 5 0 0 0 0 0 0 0 0 0 1 3 14 22 24 27 17 14 21 17 10 14
119 144 153 140 153 156 163 109 88 121 138 146 118 59 15 0 0 0 0 2 4 2 16 4 3 0 0 0 0 0 0 0 0 0 0 0 0 0 0 0 0 0 0
216 200 208 161 187 170 135 123 103 146 110 102 97 108 94 109 74 44 16 12 8 0 0 1 4 4 9 2 0 2 4 2 0 0 0 0 2 0 1 1 0 1 4
114 110 76 106 119 136 142 147 136 126 124 155 160 120 105 82 94 100 103 106 82 72 74 78 59 36 22 7 1 1 1 0 0 0 0 0 0 1 0 0 0 1 1
41 18 26 36 19 12 8 5 14 24 45 72 100 125 150 137 138 119 117 97 83 85 84 85 95 104 95 93 78 75 75 60 38 15 5 3 5 15 27 20 11 11 30
3 0 0 0 0 0 0 0 0 0 0 5 29 35 77 76 80 85 86 84 74 84 92 74 70 80 111 125 129 110 116 123 130 248 158 110 58 78 77 63 67 176 75
0 0 0 0 0 0 0 0 0 0 0 0 0 0 0 0 16 28 53 64 64 63 71 73 45 83 104 205 124 143 161 176 170 219 201 85 125 131 147 127 117 120 114
0 0 0 0 0 0 0 0 0 0 0 0 0 0 0 0 0 0 0 0 0 0 4 55 71 95 119 131 171 140 130 153 176 189 139 156 37 115 123 87 109 109 92
0 0 0 0 0 0 0 0 0 0 0 0 0 0 0 0 0 0 0 0 0 0 0 0 1 27 76 133 128 131 133 145 169 151 142 52 76 3 34 25 14 1 0
0 0 0 0 0 0 0 0 0 0 0 0 0 0 0 0 0 0 0 0 0 0 0 0 0 0 3 4 6 14 50 95 96 126 126 72 1 0 0 0 0 0 0
0 0 0 0 0 0 0 0 0 0 0 0 0 0 0 0 0 0 0 0 0 0 0 0 0 0 0 0 0 0 0 20 25 26 0 0 0 0 0 2 0 0 0
0 0 0 0 0 0 0 0 0 0 0 0 0 0 0 0 0 0 0 0 0 0 0 0 0 0 0 0 0 0 0 0 0 0 0 0 0 0 0 0 0 0 0
0 0 0 0 0 0 0 0 0 0 0 0 0 0 0 0 0 0 0 0 0 0 0 0 0 0 0 0 0 0 0 0 0 0 0 0 0 0 0 0 0 0 0

GFSMW_con_mucape_087.txt.gz
CAPE
0 0 0 0 105 264 329 307 475 477 210 257 229 104 17 29 48 81 56 49 68 93 83 56 44 20 41 47 34 0 0 5 0 3 0 0 0 7 8 9 5 6 13
0 0 0 6 71 151 202 275 419 268 174 184 197 134 49 34 20 58 66 30 44 90 69 50 38 19 46 57 34 0 1 1 1 0 1 1 1 10 6 7 4 10 9
0 0 0 26 69 61 105 268 304 254 181 145 3 23 50 25 36 28 44 26 25 42 57 37 22 24 40 8 10 3 0 0 1 0 25 36 39 5 8 10 6 2 4
0 0 0 41 40 28 54 211 275 210 196 118 9 13 14 25 2 41 1 17 40 36 18 56 15 19 20 49 27 5 14 28 22 14 13 23 40 80 51 0 1 2 1
0 0 0 36 30 4 72 216 222 196 197 5 5 15 3 14 1 0 15 25 51 54 13 21 43 24 37 45 0 26 15 43 46 20 33 32 18 43 57 68 17 20 21
0 0 6 54 69 0 88 197 183 199 182 1 7 1 20 15 0 8 5 17 47 26 68 69 52 40 67 1 0 30 17 6 38 68 111 57 46 36 88 67 82 113 65
0 8 59 89 79 7 112 163 181 185 164 5 2 5 2 13 3 12 7 38 22 14 57 50 56 45 7 0 0 3 14 0 36 70 81 87 112 109 84 111 88 93 60
0 0 52 76 27 7 70 155 188 155 53 3 2 4 3 2 3 10 12 20 27 27 38 53 40 1 0 1 0 0 16 30 82 75 76 91 78 84 83 87 140 123 129
0 0 24 58 15 9 91 145 158 137 4 12 2 5 1 0 0 4 3 11 40 32 54 21 20 11 18 13 6 14 1 0 41 77 90 90 64 112 91 108 150 134 131
6 0 6 39 10 22 58 119 113 115 2 34 4 2 3 1 0 4 6 11 23 7 34 12 29 25 26 9 6 3 2 2 2 0 63 61 69 67 68 104 103 109 119
30 11 7 28 4 1 63 102 91 53 1 35 1 5 9 6 0 0 0 14 8 14 45 33 20 17 0 4 1 2 0 6 6 8 1 39 44 40 45 40 59 76 57
22 2 2 10 5 19 57 103 118 1 1 7 10 4 7 4 0 0 0 0 0 0 0 2 4 16 4 18 33 2 0 5 4 0 6 0 0 11 26 35 25 0 0
22 14 3 27 42 112 95 123 94 7 7 2 5 5 4 3 4 7 0 0 0 0 0 0 0 0 0 10 5 7 7 2 2 14 5 36 35 26 34 81 55 20 11
10 42 97 78 68 141 101 156 36 4 6 10 25 24 9 13 4 0 0 4 8 0 0 0 0 0 3 1 2 15 21 16 28 12 22 21 29 33 49 45 31 29 31
131 230 5 54 165 118 170 138 1 9 4 5 14 12 16 20 21 19 15 4 0 0 0 0 0 0 0 2 2 0 1 9 4 2 2 15 8 0 22 42 54 88 64
47 106 18 79 96 176 216 95 4 0 0 0 0 0 0 2 21 19 16 19 11 4 3 3 0 0 0 0 0 0 4 6 1 3 11 9 0 0 0 6 11 17 19
53 57 145 131 169 185 145 88 40 68 72 75 71 66 42 27 14 4 4 2 2 5 3 6 6 11 5 4 2 3 1 2 6 9 18 20 16 10 3 5 9 14 19
80 53 97 247 134 157 147 101 54 70 68 64 77 100 131 82 74 99 87 125 86 61 27 21 50 11 11 11 8 13 22 24 31 23 12 15 15 15 22 20 27 38 26
19 101 130 126 139 97 35 30 31 32 5 14 52 55 52 75 110 71 67 70 65 62 138 62 46 82 119 50 41 50 54 55 45 27 102 25 57 9 36 45 59 35 18
0 48 137 120 48 18 12 0 0 0 3 0 0 0 4 0 3 2 2 2 0 15 10 69 48 117 83 61 43 42 42 56 22 37 22 31 38 28 27 41 16 1 4
0 0 8 41 4 4 3 1 0 0 0 0 0 0 0 0 0 0 0 0 0 0 2 2 3 7 26 68 57 37 39 48 43 57 60 37 51 38 92 58 76 26 0
0 0 0 0 0 0 0 0 0 0 0 0 0 0 0 0 0 0 0 0 0 0 0 0 0 0 0 0 0 0 0 0 1 6 1 3 5 5 5 4 2 1 0
0 0 0 0 0 0 1 0 0 0 0 0 0 0 0 0 0 0 0 0 0 0 0 0 0 0 0 0 0 0 0 0 0 0 0 0 0 0 0 0 0 0 0
0 0 0 0 0 0 0 0 2 3 0 1 0 0 0 0 0 0 0 0 0 0 0 0 0 0 0 0 0 0 0 0 0 0 0 0 0 0 0 0 0 0 0
0 0 0 0 0 0 0 0 0 0 0 0 0 0 0 0 0 0 0 0 0 0 0 0 0 0 0 0 0 0 0 0 0 0 0 0 0 0 0 0 0 0 0
0 0 0 0 0 0 0 0 0 0 0 0 0 0 0 0 0 0 0 0 0 0 0 0 0 0 0 0 0 0 0 0 0 0 0 0 0 0 0 0 0 0 0

GFSMW_con_mucape_093.txt.gz
CAPE
0 0 0 0 0 0 0 214 1164 2517 1913 1856 1875 1375 1511 1175 1265 1047 882 559 373 262 110 85 137 91 16 33 19 41 42 63 282 148 90 129 112 61 26 31 27 33 34
0 0 0 0 0 0 0 256 794 1806 1735 1742 1715 1747 1402 1243 932 739 363 333 232 132 21 98 57 19 25 35 23 32 32 55 154 124 80 77 51 67 41 33 28 63 30
0 0 0 0 0 0 0 172 707 1490 1616 1691 1727 1610 1247 811 819 568 544 402 226 65 45 87 46 37 30 30 13 39 32 105 94 125 18 51 39 36 20 54 21 70 27
0 0 0 0 0 0 28 265 677 1516 1300 1694 1659 1550 807 577 639 615 417 122 15 5 47 36 59 62 23 7 29 36 47 92 111 137 150 83 55 41 33 24 36 33 35
0 0 0 0 0 0 44 426 749 1364 1375 1735 1562 1583 1188 1015 662 586 499 179 6 11 76 34 47 52 14 7 25 16 118 112 161 146 137 162 127 150 104 45 65 35 26
5 0 0 0 0 0 380 721 912 1183 1302 1485 1434 1379 1136 809 394 609 615 184 43 5 22 39 42 31 20 24 6 64 91 133 236 219 173 168 132 120 127 120 154 153 110
52 18 2 0 0 0 541 921 939 1146 1229 1265 1235 1147 878 594 382 361 378 8 5 4 5 26 24 14 23 19 25 63 172 271 256 278 138 190 222 193 146 98 157 140 131
155 256 125 122 100 239 783 447 954 1039 1136 1136 1045 753 557 342 354 347 50 0 0 3 2 22 13 24 16 29 36 120 185 174 227 161 144 150 243 202 178 133 121 102 69
6 483 315 182 500 771 352 181 907 1028 945 830 764 448 332 316 325 107 0 6 0 0 5 13 30 16 13 27 21 56 70 93 136 163 196 145 126 208 253 202 139 159 66
3 6 531 225 707 625 172 306 652 843 561 455 426 272 385 224 175 49 0 0 0 0 5 10 27 24 17 8 27 19 40 100 142 102 121 82 146 153 153 137 201 184 102
0 25 88 595 777 691 134 306 470 679 455 269 180 282 168 92 129 79 3 0 0 0 12 5 14 4 23 21 12 5 30 26 3 14 34 0 66 116 184 136 73 146 136
0 14 318 353 497 461 183 109 567 547 367 229 328 448 154 60 41 24 0 2 0 5 25 20 6 33 33 36 22 2 0 0 0 0 0 6 2 64 77 146 108 121 62
0 35 112 247 389 244 243 127 356 389 219 161 242 235 129 59 19 5 4 0 0 3 3 3 0 1 0 2 0 0 0 0 1 7 0 2 0 68 52 19 5 6 1
0 1 90 86 32 27 10 135 395 282 254 115 117 160 109 133 69 70 57 5 3 11 3 3 26 15 1 2 3 1 1 7 9 2 1 4 12 16 21 7 4 1 0
0 6 191 88 34 33 12 28 397 421 125 65 158 127 78 71 109 83 53 41 53 7 0 0 2 21 13 6 4 10 11 8 4 8 0 0 2 4 13 0 12 20 9
0 3 185 247 54 39 68 329 537 243 40 73 49 58 41 23 32 53 36 0 0 29 38 46 50 46 4 12 0 0 5 1 5 7 8 9 0 0 2 2 0 13 43
0 0 38 24 273 170 202 284 471 124 55 33 67 10 11 3 4 2 5 3 1 4 0 15 15 18 22 6 7 10 11 11 17 16 29 34 25 19 14 13 10 1 14
0 0 1 2 133 61 243 246 338 113 58 52 48 6 9 21 4 10 7 7 4 6 4 3 11 7 7 4 4 1 4 9 7 7 20 10 19 39 36 32 22 10 7
0 0 0 0 0 42 228 263 177 111 53 54 26 5 4 3 3 20 15 3 5 24 15 4 3 3 2 1 0 0 0 0 0 5 2 5 2 0 0 30 19 11 0
0 0 0 0 25 6 160 151 80 9 29 46 14 62 56 6 17 36 64 20 8 4 3 5 7 7 6 6 19 10 9 3 2 21 3 6 10 37 48 57 38 58 53
0 0 0 0 0 0 16 5 0 22 2 22 31 63 70 120 114 100 109 130 122 174 164 168 138 139 147 143 86 36 27 21 0 3 1 13 5 66 42 3 22 58 36
0 0 0 0 0 0 0 5 5 3 0 5 15 22 1 33 62 62 81 79 86 51 25 52 34 44 22 46 26 10 19 8 5 19 11 36 25 29 7 0 0 0 0
0 0 0 0 0 0 0 0 0 0 0 0 0 0 0 3 0 0 2 0 0 0 6 3 4 2 5 5 2 0 0 0 0 0 0 0 0 0 0 0 0 0 0
0 0 0 0 0 0 0 0 0 0 0 0 0 0 0 0 0 0 0 0 0 0 0 0 0 0 0 0 0 0 0 0 0 0 0 0 0 0 0 0 0 0 0
0 0 0 0 0 0 0 0 0 0 0 0 0 0 0 0 0 0 0 0 0 0 0 0 0 0 0 0 0 0 0 0 0 0 0 0 0 0 0 0 0 0 0
0 0 0 0 0 0 0 0 0 0 0 0 0 4 10 3 0 1 9 5 0 0 0 0 0 0 0 0 0 0 0 0 0 0 0 0 0 0 0 0 0 0 0